Time,TemperatureF,DewpointF,PressureIn,WindDirection,WindDirectionDegrees,WindSpeedMPH,WindSpeedGustMPH,Humidity,HourlyPrecipIn,Conditions,Clouds,dailyrainin,SoftwareType,DateUTC
2013-03-08 00:00:00,31.7,28.8,29.92,NNE,12,0.0,0.0,89,0.00,,,0.03,Wunderground v.1.15,2013-03-08 05:00:00,
2013-03-08 00:02:00,31.7,29.1,29.92,North,9,0.0,0.0,90,0.00,,,0.03,Wunderground v.1.15,2013-03-08 05:02:00,
2013-03-08 00:03:00,31.7,29.1,29.92,North,9,0.0,0.0,90,0.00,,,0.03,Wunderground v.1.15,2013-03-08 05:03:00,
2013-03-08 00:06:00,31.7,29.1,29.92,NE,37,0.0,0.0,90,0.00,,,0.03,Wunderground v.1.15,2013-03-08 05:06:00,
2013-03-08 00:07:00,31.7,29.1,29.92,NNE,27,0.0,0.0,90,0.00,,,0.03,Wunderground v.1.15,2013-03-08 05:07:00,
2013-03-08 00:10:00,31.6,29.0,29.91,NNE,13,0.0,0.0,90,0.00,,,0.03,Wunderground v.1.15,2013-03-08 05:10:00,
2013-03-08 00:12:00,31.6,29.0,29.91,NNE,25,0.0,0.0,90,0.00,,,0.03,Wunderground v.1.15,2013-03-08 05:12:00,
2013-03-08 00:14:00,31.6,29.0,29.91,NNE,22,0.0,0.0,90,0.00,,,0.03,Wunderground v.1.15,2013-03-08 05:14:00,
2013-03-08 00:15:00,31.5,28.9,29.91,NNE,28,0.0,0.0,90,0.00,,,0.03,Wunderground v.1.15,2013-03-08 05:15:00,
2013-03-08 00:19:00,31.5,29.2,29.91,North,5,0.0,0.0,91,0.00,,,0.03,Wunderground v.1.15,2013-03-08 05:19:00,
2013-03-08 00:22:00,31.4,29.1,29.91,NNE,19,0.0,0.0,91,0.00,,,0.03,Wunderground v.1.15,2013-03-08 05:22:00,
2013-03-08 00:24:00,31.4,29.1,29.91,North,350,0.0,0.0,91,0.00,,,0.03,Wunderground v.1.15,2013-03-08 05:24:00,
2013-03-08 00:28:00,31.4,29.1,29.91,NNE,14,0.0,0.0,91,0.00,,,0.03,Wunderground v.1.15,2013-03-08 05:28:00,
2013-03-08 00:29:00,31.3,29.0,29.91,NE,37,0.0,0.0,91,0.00,,,0.03,Wunderground v.1.15,2013-03-08 05:29:00,
2013-03-08 00:31:00,31.3,29.0,29.91,NNE,33,0.0,0.0,91,0.00,,,0.03,Wunderground v.1.15,2013-03-08 05:31:00,
2013-03-08 00:33:00,31.3,29.0,29.91,NNE,21,0.0,0.0,91,0.00,,,0.03,Wunderground v.1.15,2013-03-08 05:33:00,
2013-03-08 00:34:00,31.2,28.9,29.91,NNE,15,0.0,0.0,91,0.00,,,0.03,Wunderground v.1.15,2013-03-08 05:34:00,
2013-03-08 00:36:00,31.2,28.9,29.91,North,11,0.0,0.0,91,0.00,,,0.03,Wunderground v.1.15,2013-03-08 05:36:00,
2013-03-08 00:39:00,31.1,29.0,29.91,ENE,69,0.0,0.0,92,0.00,,,0.03,Wunderground v.1.15,2013-03-08 05:39:00,
2013-03-08 00:41:00,31.1,29.0,29.91,NE,40,0.0,0.0,92,0.00,,,0.03,Wunderground v.1.15,2013-03-08 05:41:00,
2013-03-08 00:42:00,31.1,29.0,29.91,NNE,16,0.0,0.0,92,0.00,,,0.03,Wunderground v.1.15,2013-03-08 05:42:00,
2013-03-08 00:47:00,31.0,28.9,29.91,North,9,0.0,0.0,92,0.00,,,0.03,Wunderground v.1.15,2013-03-08 05:47:00,
2013-03-08 00:49:00,30.9,28.9,29.91,North,355,0.0,0.0,92,0.00,,,0.03,Wunderground v.1.15,2013-03-08 05:49:00,
2013-03-08 00:50:00,30.8,28.8,29.91,North,5,0.0,0.0,92,0.00,,,0.03,Wunderground v.1.15,2013-03-08 05:50:00,
2013-03-08 00:51:00,30.9,29.1,29.91,NNE,12,0.0,0.0,93,0.00,,,0.03,Wunderground v.1.15,2013-03-08 05:51:00,
2013-03-08 00:56:00,30.8,29.0,29.91,North,355,0.0,0.0,93,0.00,,,0.03,Wunderground v.1.15,2013-03-08 05:56:00,
2013-03-08 00:57:00,30.7,28.9,29.91,NE,43,0.0,0.0,93,0.00,,,0.03,Wunderground v.1.15,2013-03-08 05:57:00,
2013-03-08 00:59:00,30.7,28.9,29.91,NNE,15,0.0,0.0,93,0.00,,,0.03,Wunderground v.1.15,2013-03-08 05:59:00,
2013-03-08 01:00:00,30.7,28.9,29.91,NNE,22,0.0,0.0,93,0.00,,,0.03,Wunderground v.1.15,2013-03-08 06:00:00,
2013-03-08 01:02:00,30.7,28.9,29.91,NE,45,0.0,0.0,93,0.00,,,0.03,Wunderground v.1.15,2013-03-08 06:02:00,
2013-03-08 01:06:00,30.6,28.8,29.92,NE,37,0.0,0.0,93,0.00,,,0.03,Wunderground v.1.15,2013-03-08 06:06:00,
2013-03-08 01:08:00,30.6,28.8,29.92,NNW,341,0.0,0.0,93,0.00,,,0.03,Wunderground v.1.15,2013-03-08 06:08:00,
2013-03-08 01:09:00,30.6,28.8,29.92,NNE,32,0.0,0.0,93,0.00,,,0.03,Wunderground v.1.15,2013-03-08 06:09:00,
2013-03-08 01:13:00,30.5,29.0,29.91,NNW,339,0.0,0.0,94,0.00,,,0.03,Wunderground v.1.15,2013-03-08 06:13:00,
2013-03-08 01:14:00,30.5,29.0,29.91,North,360,0.0,0.0,94,0.00,,,0.03,Wunderground v.1.15,2013-03-08 06:14:00,
2013-03-08 01:15:00,30.5,29.0,29.92,North,5,0.0,0.0,94,0.00,,,0.03,Wunderground v.1.15,2013-03-08 06:15:00,
2013-03-08 01:19:00,30.5,29.0,29.91,NW,324,0.0,0.0,94,0.00,,,0.03,Wunderground v.1.15,2013-03-08 06:19:00,
2013-03-08 01:20:00,30.5,29.0,29.91,NW,324,0.0,0.0,94,0.00,,,0.03,Wunderground v.1.15,2013-03-08 06:20:00,
2013-03-08 01:21:00,30.5,29.0,29.91,NNE,22,0.0,0.0,94,0.00,,,0.03,Wunderground v.1.15,2013-03-08 06:21:00,
2013-03-08 01:22:00,30.5,29.0,29.91,North,11,0.0,0.0,94,0.00,,,0.03,Wunderground v.1.15,2013-03-08 06:22:00,
2013-03-08 01:26:00,30.5,29.0,29.91,NE,41,0.0,0.0,94,0.00,,,0.03,Wunderground v.1.15,2013-03-08 06:26:00,
2013-03-08 01:27:00,30.4,28.9,29.91,North,5,0.0,0.0,94,0.00,,,0.03,Wunderground v.1.15,2013-03-08 06:27:00,
2013-03-08 01:32:00,30.4,28.9,29.91,NE,46,0.0,0.0,94,0.00,,,0.03,Wunderground v.1.15,2013-03-08 06:32:00,
2013-03-08 01:33:00,30.4,28.9,29.91,NNE,26,0.0,0.0,94,0.00,,,0.00,Wunderground v.1.15,2013-03-08 06:33:00,
2013-03-08 01:34:00,30.4,28.9,29.91,NNE,28,0.0,0.0,94,0.00,,,0.00,Wunderground v.1.15,2013-03-08 06:34:00,
2013-03-08 01:37:00,30.4,28.9,29.91,NE,36,0.0,0.0,94,0.00,,,0.00,Wunderground v.1.15,2013-03-08 06:37:00,
2013-03-08 01:38:00,30.4,28.9,29.91,North,11,0.0,0.0,94,0.00,,,0.00,Wunderground v.1.15,2013-03-08 06:38:00,
2013-03-08 01:41:00,30.4,28.9,29.91,NNE,29,0.0,0.0,94,0.00,,,0.00,Wunderground v.1.15,2013-03-08 06:41:00,
2013-03-08 01:43:00,30.5,29.0,29.91,NE,40,0.0,0.0,94,0.00,,,0.00,Wunderground v.1.15,2013-03-08 06:43:00,
2013-03-08 01:45:00,30.4,28.9,29.91,NNW,332,0.0,0.0,94,0.00,,,0.00,Wunderground v.1.15,2013-03-08 06:45:00,
2013-03-08 01:46:00,30.4,28.9,29.91,NNE,24,0.0,0.0,94,0.00,,,0.00,Wunderground v.1.15,2013-03-08 06:46:00,
2013-03-08 01:49:00,30.4,28.9,29.90,North,11,0.0,0.0,94,0.00,,,0.00,Wunderground v.1.15,2013-03-08 06:49:00,
2013-03-08 01:51:00,30.4,28.9,29.90,NNE,28,0.0,0.0,94,0.00,,,0.00,Wunderground v.1.15,2013-03-08 06:51:00,
2013-03-08 01:52:00,30.4,28.9,29.90,NE,37,0.0,0.0,94,0.00,,,0.00,Wunderground v.1.15,2013-03-08 06:52:00,
2013-03-08 01:54:00,30.4,28.9,29.90,NNE,17,0.0,0.0,94,0.00,,,0.00,Wunderground v.1.15,2013-03-08 06:54:00,
2013-03-08 01:57:00,30.3,28.8,29.90,North,355,0.0,0.0,94,0.00,,,0.00,Wunderground v.1.15,2013-03-08 06:57:00,
2013-03-08 01:58:00,30.3,28.8,29.90,NE,44,0.0,0.0,94,0.00,,,0.00,Wunderground v.1.15,2013-03-08 06:58:00,
2013-03-08 01:59:00,30.3,28.8,29.90,NNE,32,0.0,0.0,94,0.00,,,0.00,Wunderground v.1.15,2013-03-08 06:59:00,
2013-03-08 02:00:00,30.3,28.8,29.90,NNE,28,0.0,0.0,94,0.00,,,0.00,Wunderground v.1.15,2013-03-08 07:00:00,
2013-03-08 02:03:00,30.3,28.8,29.90,North,355,0.0,0.0,94,0.00,,,0.00,Wunderground v.1.15,2013-03-08 07:03:00,
2013-03-08 02:07:00,30.3,28.8,29.90,NNW,336,0.0,0.0,94,0.00,,,0.00,Wunderground v.1.15,2013-03-08 07:07:00,
2013-03-08 02:08:00,30.3,28.8,29.90,NNE,26,0.0,0.0,94,0.00,,,0.00,Wunderground v.1.15,2013-03-08 07:08:00,
2013-03-08 02:12:00,30.2,28.7,29.90,NNE,23,0.0,0.0,94,0.00,,,0.00,Wunderground v.1.15,2013-03-08 07:12:00,
2013-03-08 02:13:00,30.2,28.7,29.90,NNE,19,0.0,0.0,94,0.00,,,0.00,Wunderground v.1.15,2013-03-08 07:13:00,
2013-03-08 02:17:00,30.2,28.7,29.89,NNE,15,0.0,0.0,94,0.00,,,0.00,Wunderground v.1.15,2013-03-08 07:17:00,
2013-03-08 02:18:00,30.2,28.7,29.89,NE,35,0.0,0.0,94,0.00,,,0.00,Wunderground v.1.15,2013-03-08 07:18:00,
2013-03-08 02:19:00,30.1,28.6,29.89,NNE,33,0.0,0.0,94,0.00,,,0.00,Wunderground v.1.15,2013-03-08 07:19:00,
2013-03-08 02:23:00,30.1,28.6,29.89,NNE,12,0.0,0.0,94,0.00,,,0.00,Wunderground v.1.15,2013-03-08 07:23:00,
2013-03-08 02:25:00,30.1,28.6,29.89,North,5,0.0,0.0,94,0.00,,,0.00,Wunderground v.1.15,2013-03-08 07:25:00,
2013-03-08 02:27:00,30.1,28.6,29.89,North,5,0.0,0.0,94,0.00,,,0.00,Wunderground v.1.15,2013-03-08 07:27:00,
2013-03-08 02:29:00,30.1,28.6,29.89,NNE,21,0.0,0.0,94,0.00,,,0.00,Wunderground v.1.15,2013-03-08 07:29:00,
2013-03-08 02:30:00,30.1,28.6,29.89,NNE,28,0.0,0.0,94,0.00,,,0.00,Wunderground v.1.15,2013-03-08 07:30:00,
2013-03-08 02:34:00,30.1,28.6,29.88,North,5,0.0,0.0,94,0.00,,,0.00,Wunderground v.1.15,2013-03-08 07:34:00,
2013-03-08 02:35:00,30.1,28.6,29.88,North,5,0.0,0.0,94,0.00,,,0.00,Wunderground v.1.15,2013-03-08 07:35:00,
2013-03-08 02:38:00,30.0,28.5,29.88,NNE,15,0.0,0.0,94,0.00,,,0.00,Wunderground v.1.15,2013-03-08 07:38:00,
2013-03-08 02:41:00,30.0,28.5,29.88,North,360,0.0,0.0,94,0.00,,,0.00,Wunderground v.1.15,2013-03-08 07:41:00,
2013-03-08 02:42:00,30.0,28.5,29.88,NNE,29,0.0,0.0,94,0.00,,,0.00,Wunderground v.1.15,2013-03-08 07:42:00,
2013-03-08 02:43:00,30.0,28.5,29.88,North,5,0.0,0.0,94,0.00,,,0.00,Wunderground v.1.15,2013-03-08 07:43:00,
2013-03-08 02:48:00,29.9,28.4,29.88,NNE,17,0.0,0.0,94,0.00,,,0.00,Wunderground v.1.15,2013-03-08 07:48:00,
2013-03-08 02:49:00,30.0,28.5,29.88,North,9,0.0,0.0,94,0.00,,,0.00,Wunderground v.1.15,2013-03-08 07:49:00,
2013-03-08 02:52:00,29.9,28.6,29.88,NNE,30,0.0,0.0,95,0.00,,,0.00,Wunderground v.1.15,2013-03-08 07:52:00,
2013-03-08 02:54:00,29.9,28.6,29.88,NNE,21,0.0,0.0,95,0.00,,,0.00,Wunderground v.1.15,2013-03-08 07:54:00,
2013-03-08 02:55:00,29.9,28.6,29.88,NE,38,0.0,0.0,95,0.00,,,0.00,Wunderground v.1.15,2013-03-08 07:55:00,
2013-03-08 02:58:00,29.9,28.6,29.87,North,355,0.0,0.0,95,0.00,,,0.00,Wunderground v.1.15,2013-03-08 07:58:00,
2013-03-08 02:59:00,29.9,28.6,29.87,NNE,32,0.0,0.0,95,0.00,,,0.00,Wunderground v.1.15,2013-03-08 07:59:00,
2013-03-08 03:02:00,30.0,28.7,29.87,North,355,0.0,0.0,95,0.00,,,0.00,Wunderground v.1.15,2013-03-08 08:02:00,
2013-03-08 03:05:00,30.1,28.8,29.87,NNE,26,0.0,0.0,95,0.00,,,0.00,Wunderground v.1.15,2013-03-08 08:05:00,
2013-03-08 03:07:00,30.1,28.8,29.87,North,351,0.0,0.0,95,0.00,,,0.00,Wunderground v.1.15,2013-03-08 08:07:00,
2013-03-08 03:08:00,30.1,28.8,29.87,NE,36,0.0,0.0,95,0.00,,,0.00,Wunderground v.1.15,2013-03-08 08:08:00,
2013-03-08 03:10:00,30.2,28.9,29.87,NNE,19,0.0,0.0,95,0.00,,,0.00,Wunderground v.1.15,2013-03-08 08:10:00,
2013-03-08 03:12:00,30.1,28.8,29.87,NNE,17,0.0,0.0,95,0.00,,,0.00,Wunderground v.1.15,2013-03-08 08:12:00,
2013-03-08 03:13:00,30.1,28.8,29.87,NNE,23,0.0,0.0,95,0.00,,,0.00,Wunderground v.1.15,2013-03-08 08:13:00,
2013-03-08 03:15:00,30.1,28.8,29.87,NNE,28,0.0,0.0,95,0.00,,,0.00,Wunderground v.1.15,2013-03-08 08:15:00,
2013-03-08 03:18:00,30.2,28.9,29.87,North,5,0.0,0.0,95,0.00,,,0.00,Wunderground v.1.15,2013-03-08 08:18:00,
2013-03-08 03:19:00,30.2,28.9,29.87,NNE,15,0.0,0.0,95,0.00,,,0.00,Wunderground v.1.15,2013-03-08 08:19:00,
2013-03-08 03:21:00,30.2,28.9,29.87,NW,324,0.0,0.0,95,0.00,,,0.00,Wunderground v.1.15,2013-03-08 08:21:00,
2013-03-08 03:25:00,30.2,28.9,29.87,NNW,347,0.0,0.0,95,0.00,,,0.00,Wunderground v.1.15,2013-03-08 08:25:00,
2013-03-08 03:27:00,30.2,28.9,29.87,North,360,0.0,0.0,95,0.00,,,0.00,Wunderground v.1.15,2013-03-08 08:27:00,
2013-03-08 03:29:00,30.2,28.9,29.87,NE,40,0.0,0.0,95,0.00,,,0.00,Wunderground v.1.15,2013-03-08 08:29:00,
2013-03-08 03:30:00,30.2,28.9,29.87,NNE,24,0.0,0.0,95,0.00,,,0.00,Wunderground v.1.15,2013-03-08 08:30:00,
2013-03-08 03:31:00,30.2,28.9,29.87,North,5,0.0,0.0,95,0.00,,,0.00,Wunderground v.1.15,2013-03-08 08:31:00,
2013-03-08 03:34:00,30.2,28.9,29.87,NNE,13,0.0,0.0,95,0.00,,,0.00,Wunderground v.1.15,2013-03-08 08:34:00,
2013-03-08 03:35:00,30.1,28.8,29.87,NNE,18,0.0,0.0,95,0.00,,,0.00,Wunderground v.1.15,2013-03-08 08:35:00,
2013-03-08 03:38:00,30.1,28.8,29.87,North,360,0.0,0.0,95,0.00,,,0.00,Wunderground v.1.15,2013-03-08 08:38:00,
2013-03-08 03:42:00,30.1,28.8,29.87,NNE,33,0.0,0.0,95,0.00,,,0.00,Wunderground v.1.15,2013-03-08 08:42:00,
2013-03-08 03:43:00,30.1,28.8,29.87,North,360,0.0,0.0,95,0.00,,,0.00,Wunderground v.1.15,2013-03-08 08:43:00,
2013-03-08 03:47:00,30.1,28.8,29.87,North,351,0.0,0.0,95,0.00,,,0.00,Wunderground v.1.15,2013-03-08 08:47:00,
2013-03-08 03:48:00,30.1,28.8,29.87,North,5,0.0,0.0,95,0.00,,,0.00,Wunderground v.1.15,2013-03-08 08:48:00,
2013-03-08 03:49:00,30.1,28.8,29.88,North,355,0.0,0.0,95,0.00,,,0.00,Wunderground v.1.15,2013-03-08 08:49:00,
2013-03-08 03:51:00,30.1,28.8,29.87,NNW,344,0.0,0.0,95,0.00,,,0.00,Wunderground v.1.15,2013-03-08 08:51:00,
2013-03-08 03:53:00,30.1,28.8,29.87,NE,36,0.0,0.0,95,0.00,,,0.00,Wunderground v.1.15,2013-03-08 08:53:00,
2013-03-08 03:56:00,30.1,28.8,29.88,North,11,0.0,0.0,95,0.00,,,0.00,Wunderground v.1.15,2013-03-08 08:56:00,
2013-03-08 03:58:00,30.1,28.8,29.87,North,9,0.0,0.0,95,0.00,,,0.00,Wunderground v.1.15,2013-03-08 08:58:00,
2013-03-08 04:02:00,30.1,28.8,29.87,North,355,0.0,0.0,95,0.00,,,0.00,Wunderground v.1.15,2013-03-08 09:02:00,
2013-03-08 04:03:00,30.1,28.8,29.87,ENE,67,0.0,0.0,95,0.00,,,0.00,Wunderground v.1.15,2013-03-08 09:03:00,
2013-03-08 04:04:00,30.2,28.9,29.87,North,355,0.0,0.0,95,0.00,,,0.00,Wunderground v.1.15,2013-03-08 09:04:00,
2013-03-08 04:07:00,30.2,28.9,29.88,NNE,32,0.0,0.0,95,0.00,,,0.00,Wunderground v.1.15,2013-03-08 09:07:00,
2013-03-08 04:09:00,30.2,28.9,29.87,NNE,19,0.0,0.0,95,0.00,,,0.00,Wunderground v.1.15,2013-03-08 09:09:00,
2013-03-08 04:10:00,30.2,28.9,29.87,NNW,342,0.0,0.0,95,0.00,,,0.00,Wunderground v.1.15,2013-03-08 09:10:00,
2013-03-08 04:11:00,30.2,28.9,29.87,NNE,14,0.0,0.0,95,0.00,,,0.00,Wunderground v.1.15,2013-03-08 09:11:00,
2013-03-08 04:14:00,30.2,28.9,29.87,NNE,29,0.0,0.0,95,0.00,,,0.00,Wunderground v.1.15,2013-03-08 09:14:00,
2013-03-08 04:15:00,30.2,28.9,29.87,North,350,0.0,0.0,95,0.00,,,0.00,Wunderground v.1.15,2013-03-08 09:15:00,
2013-03-08 04:16:00,30.2,28.9,29.87,NE,39,0.0,0.0,95,0.00,,,0.00,Wunderground v.1.15,2013-03-08 09:16:00,
2013-03-08 04:18:00,30.1,28.8,29.87,NNE,27,0.0,0.0,95,0.00,,,0.00,Wunderground v.1.15,2013-03-08 09:18:00,
2013-03-08 04:21:00,30.1,28.8,29.87,NE,54,0.0,0.0,95,0.00,,,0.00,Wunderground v.1.15,2013-03-08 09:21:00,
2013-03-08 04:23:00,30.1,28.8,29.87,NNE,30,0.0,10.0,95,0.00,,,0.00,Wunderground v.1.15,2013-03-08 09:23:00,
2013-03-08 04:25:00,30.1,28.8,29.88,NNE,13,3.0,15.0,95,0.00,,,0.00,Wunderground v.1.15,2013-03-08 09:25:00,
2013-03-08 04:27:00,30.1,28.8,29.87,North,11,5.0,15.0,95,0.00,,,0.00,Wunderground v.1.15,2013-03-08 09:27:00,
2013-03-08 04:28:00,30.1,28.8,29.87,North,5,5.0,15.0,95,0.00,,,0.00,Wunderground v.1.15,2013-03-08 09:28:00,
2013-03-08 04:30:00,30.1,28.8,29.87,NNE,15,7.0,10.0,95,0.00,,,0.00,Wunderground v.1.15,2013-03-08 09:30:00,
2013-03-08 04:32:00,30.1,28.8,29.87,NNE,12,9.0,10.0,95,0.00,,,0.00,Wunderground v.1.15,2013-03-08 09:32:00,
2013-03-08 04:34:00,30.0,28.5,29.87,NNE,16,9.0,11.0,94,0.00,,,0.00,Wunderground v.1.15,2013-03-08 09:34:00,
2013-03-08 04:35:00,30.0,28.5,29.87,NNE,25,9.0,11.0,94,0.00,,,0.00,Wunderground v.1.15,2013-03-08 09:35:00,
2013-03-08 04:37:00,30.0,28.7,29.87,NNE,13,8.0,11.0,95,0.00,,,0.00,Wunderground v.1.15,2013-03-08 09:37:00,
2013-03-08 04:40:00,30.1,28.8,29.87,NNE,21,8.0,8.0,95,0.00,,,0.00,Wunderground v.1.15,2013-03-08 09:40:00,
2013-03-08 04:43:00,30.0,28.7,29.87,NNE,26,8.0,15.0,95,0.00,,,0.00,Wunderground v.1.15,2013-03-08 09:43:00,
2013-03-08 04:46:00,30.0,28.7,29.87,NNE,15,8.0,15.0,95,0.00,,,0.00,Wunderground v.1.15,2013-03-08 09:46:00,
2013-03-08 04:50:00,30.0,28.7,29.87,NE,36,8.0,8.0,95,0.00,,,0.00,Wunderground v.1.15,2013-03-08 09:50:00,
2013-03-08 04:52:00,30.0,28.7,29.87,NNE,15,7.0,8.0,95,0.00,,,0.00,Wunderground v.1.15,2013-03-08 09:52:00,
2013-03-08 04:53:00,29.9,28.6,29.87,NE,51,7.0,8.0,95,0.00,,,0.00,Wunderground v.1.15,2013-03-08 09:53:00,
2013-03-08 04:56:00,30.0,28.7,29.87,NNE,31,7.0,11.0,95,0.00,,,0.00,Wunderground v.1.15,2013-03-08 09:56:00,
2013-03-08 04:57:00,30.0,28.7,29.87,NNE,28,7.0,11.0,95,0.00,,,0.00,Wunderground v.1.15,2013-03-08 09:57:00,
2013-03-08 04:58:00,29.9,28.6,29.87,North,351,7.0,11.0,95,0.00,,,0.00,Wunderground v.1.15,2013-03-08 09:58:00,
2013-03-08 05:00:00,29.9,28.6,29.87,North,360,8.0,8.0,95,0.00,,,0.00,Wunderground v.1.15,2013-03-08 10:00:00,
2013-03-08 05:03:00,29.9,28.6,29.87,North,5,8.0,19.0,95,0.00,,,0.00,Wunderground v.1.15,2013-03-08 10:03:00,
2013-03-08 05:05:00,29.9,28.6,29.87,NNE,30,8.0,19.0,95,0.00,,,0.00,Wunderground v.1.15,2013-03-08 10:05:00,
2013-03-08 05:06:00,29.9,28.6,29.87,NE,46,8.0,19.0,95,0.00,,,0.00,Wunderground v.1.15,2013-03-08 10:06:00,
2013-03-08 05:10:00,29.9,28.6,29.87,NE,42,8.0,8.0,95,0.00,,,0.00,Wunderground v.1.15,2013-03-08 10:10:00,
2013-03-08 05:12:00,29.9,28.6,29.87,NNE,15,8.0,19.0,95,0.00,,,0.00,Wunderground v.1.15,2013-03-08 10:12:00,
2013-03-08 05:13:00,30.0,28.7,29.87,NNE,21,8.0,19.0,95,0.00,,,0.00,Wunderground v.1.15,2013-03-08 10:13:00,
2013-03-08 05:14:00,29.9,28.6,29.87,NE,34,8.0,19.0,95,0.00,,,0.00,Wunderground v.1.15,2013-03-08 10:14:00,
2013-03-08 05:18:00,29.9,28.6,29.87,NNE,32,8.0,19.0,95,0.00,,,0.00,Wunderground v.1.15,2013-03-08 10:18:00,
2013-03-08 05:19:00,29.9,28.6,29.87,North,5,8.0,19.0,95,0.00,,,0.00,Wunderground v.1.15,2013-03-08 10:19:00,
2013-03-08 05:20:00,29.9,28.6,29.86,NNE,31,8.0,19.0,95,0.00,,,0.00,Wunderground v.1.15,2013-03-08 10:20:00,
2013-03-08 05:22:00,29.9,28.6,29.86,NNW,343,8.0,19.0,95,0.00,,,0.00,Wunderground v.1.15,2013-03-08 10:22:00,
2013-03-08 05:24:00,29.9,28.6,29.86,North,5,9.0,19.0,95,0.00,,,0.00,Wunderground v.1.15,2013-03-08 10:24:00,
2013-03-08 05:25:00,29.9,28.6,29.86,North,355,9.0,19.0,95,0.00,,,0.00,Wunderground v.1.15,2013-03-08 10:25:00,
2013-03-08 05:30:00,29.9,28.6,29.86,North,5,9.0,9.0,95,0.00,,,0.00,Wunderground v.1.15,2013-03-08 10:30:00,
2013-03-08 05:31:00,29.9,28.6,29.86,NNW,343,9.0,19.0,95,0.00,,,0.00,Wunderground v.1.15,2013-03-08 10:31:00,
2013-03-08 05:32:00,29.9,28.6,29.86,North,5,9.0,19.0,95,0.00,,,0.00,Wunderground v.1.15,2013-03-08 10:32:00,
2013-03-08 05:33:00,29.9,28.6,29.87,NNE,17,9.0,19.0,95,0.00,,,0.00,Wunderground v.1.15,2013-03-08 10:33:00,
2013-03-08 05:36:00,29.9,28.6,29.86,NNW,347,9.0,19.0,95,0.00,,,0.00,Wunderground v.1.15,2013-03-08 10:36:00,
2013-03-08 05:37:00,29.9,28.6,29.87,NE,36,8.0,19.0,95,0.00,,,0.00,Wunderground v.1.15,2013-03-08 10:37:00,
2013-03-08 05:39:00,29.9,28.6,29.86,NNE,14,9.0,19.0,95,0.00,,,0.00,Wunderground v.1.15,2013-03-08 10:39:00,
2013-03-08 05:42:00,29.9,28.6,29.87,North,5,9.0,19.0,95,0.00,,,0.00,Wunderground v.1.15,2013-03-08 10:42:00,
2013-03-08 05:43:00,29.9,28.6,29.86,NNE,18,8.0,19.0,95,0.00,,,0.00,Wunderground v.1.15,2013-03-08 10:43:00,
2013-03-08 05:44:00,29.9,28.6,29.86,ENE,76,8.0,19.0,95,0.00,,,0.00,Wunderground v.1.15,2013-03-08 10:44:00,
2013-03-08 05:45:00,29.8,28.5,29.87,North,5,9.0,19.0,95,0.00,,,0.00,Wunderground v.1.15,2013-03-08 10:45:00,
2013-03-08 05:49:00,29.8,28.5,29.86,NE,50,8.0,19.0,95,0.00,,,0.00,Wunderground v.1.15,2013-03-08 10:49:00,
2013-03-08 05:50:00,29.8,28.5,29.87,NE,41,9.0,9.0,95,0.00,,,0.00,Wunderground v.1.15,2013-03-08 10:50:00,
2013-03-08 05:51:00,29.8,28.5,29.87,NNE,32,9.0,19.0,95,0.00,,,0.00,Wunderground v.1.15,2013-03-08 10:51:00,
2013-03-08 05:54:00,29.8,28.5,29.86,NE,39,9.0,19.0,95,0.00,,,0.00,Wunderground v.1.15,2013-03-08 10:54:00,
2013-03-08 05:57:00,29.9,28.6,29.87,ENE,61,9.0,19.0,95,0.00,,,0.00,Wunderground v.1.15,2013-03-08 10:57:00,
2013-03-08 05:58:00,29.8,28.5,29.87,ESE,115,9.0,19.0,95,0.00,,,0.00,Wunderground v.1.15,2013-03-08 10:58:00,
2013-03-08 05:59:00,29.8,28.5,29.87,NE,37,8.0,19.0,95,0.00,,,0.00,Wunderground v.1.15,2013-03-08 10:59:00,
2013-03-08 06:00:00,29.8,28.5,29.87,NE,36,8.0,22.0,95,0.00,,,0.00,Wunderground v.1.15,2013-03-08 11:00:00,
2013-03-08 06:06:00,29.9,28.6,29.87,North,9,8.0,22.0,95,0.00,,,0.00,Wunderground v.1.15,2013-03-08 11:06:00,
2013-03-08 06:08:00,29.9,28.6,29.87,North,9,8.0,22.0,95,0.00,,,0.00,Wunderground v.1.15,2013-03-08 11:08:00,
2013-03-08 06:09:00,29.9,28.6,29.87,North,360,8.0,22.0,95,0.00,,,0.00,Wunderground v.1.15,2013-03-08 11:09:00,
2013-03-08 06:12:00,29.9,28.6,29.87,NNE,27,8.0,22.0,95,0.00,,,0.00,Wunderground v.1.15,2013-03-08 11:12:00,
2013-03-08 06:13:00,29.9,28.6,29.87,NE,45,8.0,22.0,95,0.00,,,0.00,Wunderground v.1.15,2013-03-08 11:13:00,
2013-03-08 06:17:00,29.9,28.6,29.87,NNE,22,8.0,22.0,95,0.00,,,0.00,Wunderground v.1.15,2013-03-08 11:17:00,
2013-03-08 06:18:00,29.9,28.6,29.87,NW,313,8.0,22.0,95,0.00,,,0.00,Wunderground v.1.15,2013-03-08 11:18:00,
2013-03-08 06:19:00,29.9,28.6,29.87,NNE,12,8.0,22.0,95,0.00,,,0.00,Wunderground v.1.15,2013-03-08 11:19:00,
2013-03-08 06:21:00,29.8,28.5,29.87,NNE,30,8.0,11.0,95,0.00,,,0.00,Wunderground v.1.15,2013-03-08 11:21:00,
2013-03-08 06:25:00,29.9,28.6,29.87,NNE,12,8.0,22.0,95,0.00,,,0.00,Wunderground v.1.15,2013-03-08 11:25:00,
2013-03-08 06:26:00,29.9,28.6,29.87,NE,34,8.0,22.0,95,0.00,,,0.00,Wunderground v.1.15,2013-03-08 11:26:00,
2013-03-08 06:28:00,30.0,28.7,29.87,North,360,9.0,22.0,95,0.00,,,0.00,Wunderground v.1.15,2013-03-08 11:28:00,
2013-03-08 06:30:00,30.0,28.7,29.88,NNE,28,9.0,9.0,95,0.00,,,0.00,Wunderground v.1.15,2013-03-08 11:30:00,
2013-03-08 06:31:00,30.0,28.7,29.87,North,11,9.0,22.0,95,0.00,,,0.00,Wunderground v.1.15,2013-03-08 11:31:00,
2013-03-08 06:33:00,30.0,28.5,29.88,NNE,20,9.0,22.0,94,0.00,,,0.00,Wunderground v.1.15,2013-03-08 11:33:00,
2013-03-08 06:35:00,30.0,28.5,29.87,NNE,13,9.0,22.0,94,0.00,,,0.00,Wunderground v.1.15,2013-03-08 11:35:00,
2013-03-08 06:36:00,30.0,28.5,29.88,NE,46,9.0,22.0,94,0.00,,,0.00,Wunderground v.1.15,2013-03-08 11:36:00,
2013-03-08 06:41:00,29.9,28.4,29.88,NE,40,9.0,22.0,94,0.00,,,0.00,Wunderground v.1.15,2013-03-08 11:41:00,
2013-03-08 06:43:00,29.9,28.4,29.88,NE,38,10.0,22.0,94,0.00,,,0.00,Wunderground v.1.15,2013-03-08 11:43:00,
2013-03-08 06:44:00,29.9,28.4,29.88,North,10,10.0,22.0,94,0.00,,,0.00,Wunderground v.1.15,2013-03-08 11:44:00,
2013-03-08 06:45:00,29.9,28.4,29.88,NNE,22,10.0,22.0,94,0.00,,,0.00,Wunderground v.1.15,2013-03-08 11:45:00,
2013-03-08 06:50:00,29.9,28.4,29.88,NNE,30,10.0,10.0,94,0.00,,,0.00,Wunderground v.1.15,2013-03-08 11:50:00,
2013-03-08 06:51:00,29.9,28.4,29.88,NE,38,10.0,12.0,94,0.00,,,0.00,Wunderground v.1.15,2013-03-08 11:51:00,
2013-03-08 06:55:00,29.9,28.4,29.88,NNE,26,9.0,22.0,94,0.00,,,0.00,Wunderground v.1.15,2013-03-08 11:55:00,
2013-03-08 06:57:00,29.9,28.4,29.88,North,5,8.0,22.0,94,0.00,,,0.00,Wunderground v.1.15,2013-03-08 11:57:00,
2013-03-08 06:58:00,29.9,28.4,29.88,NNE,32,8.0,22.0,94,0.00,,,0.00,Wunderground v.1.15,2013-03-08 11:58:00,
2013-03-08 07:03:00,29.9,28.4,29.88,NNW,344,8.0,20.0,94,0.00,,,0.00,Wunderground v.1.15,2013-03-08 12:03:00,
2013-03-08 07:04:00,29.9,28.4,29.88,NNE,23,8.0,20.0,94,0.00,,,0.00,Wunderground v.1.15,2013-03-08 12:04:00,
2013-03-08 07:05:00,29.9,28.4,29.88,NNE,13,8.0,20.0,94,0.00,,,0.00,Wunderground v.1.15,2013-03-08 12:05:00,
2013-03-08 07:09:00,29.9,28.4,29.88,North,355,9.0,20.0,94,0.00,,,0.00,Wunderground v.1.15,2013-03-08 12:09:00,
2013-03-08 07:10:00,29.9,28.4,29.88,North,360,9.0,9.0,94,0.00,,,0.00,Wunderground v.1.15,2013-03-08 12:10:00,
2013-03-08 07:15:00,29.8,28.3,29.89,NNE,30,9.0,20.0,94,0.00,,,0.00,Wunderground v.1.15,2013-03-08 12:15:00,
2013-03-08 07:16:00,29.8,28.3,29.88,NNE,22,9.0,20.0,94,0.00,,,0.00,Wunderground v.1.15,2013-03-08 12:16:00,
2013-03-08 07:21:00,29.8,28.5,29.89,NNE,25,9.0,13.0,95,0.00,,,0.00,Wunderground v.1.15,2013-03-08 12:21:00,
2013-03-08 07:23:00,29.8,28.5,29.89,North,11,10.0,20.0,95,0.00,,,0.00,Wunderground v.1.15,2013-03-08 12:23:00,
2013-03-08 07:24:00,29.8,28.5,29.89,North,5,10.0,20.0,95,0.00,,,0.00,Wunderground v.1.15,2013-03-08 12:24:00,
2013-03-08 07:27:00,29.7,28.4,29.89,ENE,75,10.0,20.0,95,0.00,,,0.00,Wunderground v.1.15,2013-03-08 12:27:00,
2013-03-08 07:29:00,29.7,28.4,29.89,North,360,10.0,20.0,95,0.00,,,0.00,Wunderground v.1.15,2013-03-08 12:29:00,
2013-03-08 07:30:00,29.7,28.4,29.89,NNE,19,10.0,10.0,95,0.00,,,0.00,Wunderground v.1.15,2013-03-08 12:30:00,
2013-03-08 07:31:00,29.7,28.4,29.89,NNW,346,10.0,20.0,95,0.00,,,0.00,Wunderground v.1.15,2013-03-08 12:31:00,
2013-03-08 07:35:00,29.7,28.4,29.89,NNE,21,10.0,20.0,95,0.00,,,0.00,Wunderground v.1.15,2013-03-08 12:35:00,
2013-03-08 07:36:00,29.7,28.4,29.89,NE,38,10.0,20.0,95,0.00,,,0.00,Wunderground v.1.15,2013-03-08 12:36:00,
2013-03-08 07:37:00,29.7,28.4,29.89,NNE,17,10.0,20.0,95,0.00,,,0.00,Wunderground v.1.15,2013-03-08 12:37:00,
2013-03-08 07:40:00,29.6,28.3,29.89,NNE,17,10.0,10.0,95,0.00,,,0.00,Wunderground v.1.15,2013-03-08 12:40:00,
2013-03-08 07:42:00,29.6,28.3,29.89,NNE,24,10.0,20.0,95,0.00,,,0.00,Wunderground v.1.15,2013-03-08 12:42:00,
2013-03-08 07:46:00,29.7,28.4,29.89,NNE,17,10.0,20.0,95,0.00,,,0.00,Wunderground v.1.15,2013-03-08 12:46:00,
2013-03-08 07:47:00,29.7,28.4,29.89,NNW,346,9.0,20.0,95,0.00,,,0.00,Wunderground v.1.15,2013-03-08 12:47:00,
2013-03-08 07:48:00,29.7,28.4,29.89,NNE,32,9.0,20.0,95,0.00,,,0.00,Wunderground v.1.15,2013-03-08 12:48:00,
2013-03-08 07:50:00,29.7,28.4,29.89,NNE,30,9.0,20.0,95,0.00,,,0.00,Wunderground v.1.15,2013-03-08 12:50:00,
2013-03-08 07:52:00,29.7,28.4,29.89,NNE,26,9.0,20.0,95,0.00,,,0.00,Wunderground v.1.15,2013-03-08 12:52:00,
2013-03-08 07:53:00,29.7,28.4,29.89,North,355,9.0,20.0,95,0.00,,,0.00,Wunderground v.1.15,2013-03-08 12:53:00,
2013-03-08 07:55:00,29.7,28.4,29.89,North,360,9.0,21.0,95,0.00,,,0.00,Wunderground v.1.15,2013-03-08 12:55:00,
2013-03-08 07:58:00,29.7,28.4,29.89,NNE,24,10.0,21.0,95,0.00,,,0.00,Wunderground v.1.15,2013-03-08 12:58:00,
2013-03-08 07:59:00,29.7,28.4,29.89,NNE,23,10.0,21.0,95,0.00,,,0.00,Wunderground v.1.15,2013-03-08 12:59:00,
2013-03-08 08:00:00,29.7,28.4,29.89,NE,52,10.0,10.0,95,0.00,,,0.00,Wunderground v.1.15,2013-03-08 13:00:00,
2013-03-08 08:04:00,29.7,28.4,29.89,NNE,22,10.0,20.0,95,0.00,,,0.00,Wunderground v.1.15,2013-03-08 13:04:00,
2013-03-08 08:06:00,29.7,28.4,29.89,NNE,24,9.0,20.0,95,0.00,,,0.00,Wunderground v.1.15,2013-03-08 13:06:00,
2013-03-08 08:09:00,29.7,28.4,29.89,North,10,9.0,20.0,95,0.00,,,0.00,Wunderground v.1.15,2013-03-08 13:09:00,
2013-03-08 08:10:00,29.7,28.4,29.89,NE,55,9.0,20.0,95,0.00,,,0.00,Wunderground v.1.15,2013-03-08 13:10:00,
2013-03-08 08:11:00,29.7,28.4,29.89,North,360,9.0,20.0,95,0.00,,,0.00,Wunderground v.1.15,2013-03-08 13:11:00,
2013-03-08 08:13:00,29.7,28.4,29.89,NE,34,9.0,20.0,95,0.00,,,0.00,Wunderground v.1.15,2013-03-08 13:13:00,
2013-03-08 08:15:00,29.7,28.4,29.89,North,11,9.0,20.0,95,0.00,,,0.00,Wunderground v.1.15,2013-03-08 13:15:00,
2013-03-08 08:16:00,29.7,28.4,29.90,North,9,9.0,20.0,95,0.00,,,0.00,Wunderground v.1.15,2013-03-08 13:16:00,
2013-03-08 08:19:00,29.8,28.5,29.90,NE,49,7.0,20.0,95,0.00,,,0.00,Wunderground v.1.15,2013-03-08 13:19:00,
2013-03-08 08:21:00,29.8,28.5,29.90,NNE,24,7.0,8.0,95,0.00,,,0.00,Wunderground v.1.15,2013-03-08 13:21:00,
2013-03-08 08:23:00,29.7,28.4,29.90,NNE,19,7.0,20.0,95,0.00,,,0.00,Wunderground v.1.15,2013-03-08 13:23:00,
2013-03-08 08:27:00,29.8,28.5,29.90,North,10,7.0,20.0,95,0.00,,,0.00,Wunderground v.1.15,2013-03-08 13:27:00,
2013-03-08 08:28:00,29.8,28.5,29.90,North,11,7.0,20.0,95,0.00,,,0.00,Wunderground v.1.15,2013-03-08 13:28:00,
2013-03-08 08:30:00,29.8,28.5,29.90,NNE,17,7.0,7.0,95,0.00,,,0.00,Wunderground v.1.15,2013-03-08 13:30:00,
2013-03-08 08:32:00,29.8,28.5,29.90,NNE,24,7.0,20.0,95,0.00,,,0.00,Wunderground v.1.15,2013-03-08 13:32:00,
2013-03-08 08:35:00,29.9,28.6,29.90,NNE,26,7.0,20.0,95,0.00,,,0.00,Wunderground v.1.15,2013-03-08 13:35:00,
2013-03-08 08:37:00,29.8,28.8,29.90,North,355,7.0,20.0,96,0.00,,,0.00,Wunderground v.1.15,2013-03-08 13:37:00,
2013-03-08 08:38:00,29.9,28.9,29.90,North,5,7.0,20.0,96,0.00,,,0.00,Wunderground v.1.15,2013-03-08 13:38:00,
2013-03-08 08:40:00,29.9,28.9,29.90,NNE,13,7.0,20.0,96,0.00,,,0.00,Wunderground v.1.15,2013-03-08 13:40:00,
2013-03-08 08:43:00,29.9,28.9,29.90,NNE,26,7.0,20.0,96,0.00,,,0.00,Wunderground v.1.15,2013-03-08 13:43:00,
2013-03-08 08:46:00,29.9,28.6,29.90,NNE,30,7.0,20.0,95,0.00,,,0.00,Wunderground v.1.15,2013-03-08 13:46:00,
2013-03-08 08:48:00,29.9,28.6,29.90,NE,49,7.0,20.0,95,0.00,,,0.00,Wunderground v.1.15,2013-03-08 13:48:00,
2013-03-08 08:49:00,29.9,28.6,29.90,North,5,7.0,20.0,95,0.00,,,0.00,Wunderground v.1.15,2013-03-08 13:49:00,
2013-03-08 08:51:00,30.0,28.7,29.90,NE,44,7.0,20.0,95,0.00,,,0.00,Wunderground v.1.15,2013-03-08 13:51:00,
2013-03-08 08:53:00,30.1,28.8,29.90,North,5,7.0,20.0,95,0.00,,,0.00,Wunderground v.1.15,2013-03-08 13:53:00,
2013-03-08 08:56:00,30.1,28.8,29.90,North,5,7.0,20.0,95,0.00,,,0.00,Wunderground v.1.15,2013-03-08 13:56:00,
2013-03-08 08:57:00,30.1,28.8,29.90,NE,41,6.0,20.0,95,0.00,,,0.00,Wunderground v.1.15,2013-03-08 13:57:00,
2013-03-08 09:00:00,30.0,28.7,29.90,NNE,18,7.0,7.0,95,0.00,,,0.00,Wunderground v.1.15,2013-03-08 14:00:00,
2013-03-08 09:01:00,30.0,28.7,29.90,NNE,20,7.0,15.0,95,0.00,,,0.00,Wunderground v.1.15,2013-03-08 14:01:00,
2013-03-08 09:02:00,30.1,28.8,29.90,North,5,7.0,15.0,95,0.00,,,0.00,Wunderground v.1.15,2013-03-08 14:02:00,
2013-03-08 09:04:00,30.1,28.8,29.91,NE,47,7.0,15.0,95,0.00,,,0.00,Wunderground v.1.15,2013-03-08 14:04:00,
2013-03-08 09:06:00,30.1,28.8,29.91,NE,55,8.0,15.0,95,0.00,,,0.00,Wunderground v.1.15,2013-03-08 14:06:00,
2013-03-08 09:09:00,30.1,28.8,29.91,NE,42,7.0,15.0,95,0.00,,,0.00,Wunderground v.1.15,2013-03-08 14:09:00,
2013-03-08 09:11:00,30.2,28.9,29.91,NNE,32,7.0,15.0,95,0.00,,,0.00,Wunderground v.1.15,2013-03-08 14:11:00,
2013-03-08 09:12:00,30.2,28.9,29.91,East,83,7.0,15.0,95,0.00,,,0.00,Wunderground v.1.15,2013-03-08 14:12:00,
2013-03-08 09:13:00,30.2,28.9,29.90,NNE,27,7.0,15.0,95,0.00,,,0.00,Wunderground v.1.15,2013-03-08 14:13:00,
2013-03-08 09:17:00,30.3,29.3,29.91,NNE,15,6.0,15.0,96,0.00,,,0.00,Wunderground v.1.15,2013-03-08 14:17:00,
2013-03-08 09:18:00,30.3,29.3,29.91,NE,34,7.0,15.0,96,0.00,,,0.00,Wunderground v.1.15,2013-03-08 14:18:00,
2013-03-08 09:19:00,30.3,29.3,29.91,North,10,7.0,15.0,96,0.00,,,0.00,Wunderground v.1.15,2013-03-08 14:19:00,
2013-03-08 09:23:00,30.3,29.3,29.91,NNE,30,8.0,15.0,96,0.00,,,0.00,Wunderground v.1.15,2013-03-08 14:23:00,
2013-03-08 09:25:00,30.3,29.3,29.91,NNE,28,8.0,15.0,96,0.00,,,0.00,Wunderground v.1.15,2013-03-08 14:25:00,
2013-03-08 09:28:00,30.4,29.1,29.91,North,360,7.0,15.0,95,0.00,,,0.00,Wunderground v.1.15,2013-03-08 14:28:00,
2013-03-08 09:29:00,30.5,29.5,29.91,NNE,20,7.0,15.0,96,0.00,,,0.00,Wunderground v.1.15,2013-03-08 14:29:00,
2013-03-08 09:31:00,30.5,29.2,29.91,NE,38,7.0,10.0,95,0.00,,,0.00,Wunderground v.1.15,2013-03-08 14:31:00,
2013-03-08 09:34:00,30.6,29.3,29.91,NNE,17,6.0,15.0,95,0.00,,,0.00,Wunderground v.1.15,2013-03-08 14:34:00,
2013-03-08 09:36:00,30.6,29.3,29.91,NNE,19,7.0,15.0,95,0.00,,,0.00,Wunderground v.1.15,2013-03-08 14:36:00,
2013-03-08 09:37:00,30.6,29.3,29.91,NNW,332,7.0,15.0,95,0.00,,,0.00,Wunderground v.1.15,2013-03-08 14:37:00,
2013-03-08 09:39:00,30.6,29.3,29.91,NNE,24,7.0,15.0,95,0.00,,,0.00,Wunderground v.1.15,2013-03-08 14:39:00,
2013-03-08 09:43:00,30.7,29.4,29.91,NNE,28,7.0,15.0,95,0.00,,,0.00,Wunderground v.1.15,2013-03-08 14:43:00,
2013-03-08 09:44:00,30.8,29.5,29.91,NNE,27,7.0,15.0,95,0.00,,,0.00,Wunderground v.1.15,2013-03-08 14:44:00,
2013-03-08 09:48:00,30.8,29.5,29.91,NNE,25,8.0,15.0,95,0.00,,,0.00,Wunderground v.1.15,2013-03-08 14:48:00,
2013-03-08 09:49:00,30.8,29.5,29.91,NNE,29,9.0,15.0,95,0.00,,,0.00,Wunderground v.1.15,2013-03-08 14:49:00,
2013-03-08 09:51:00,30.8,29.5,29.91,NNE,30,9.0,15.0,95,0.00,,,0.00,Wunderground v.1.15,2013-03-08 14:51:00,
2013-03-08 09:54:00,31.0,29.7,29.91,North,9,8.0,15.0,95,0.00,,,0.00,Wunderground v.1.15,2013-03-08 14:54:00,
2013-03-08 09:55:00,31.1,29.8,29.91,NE,38,7.0,15.0,95,0.00,,,0.00,Wunderground v.1.15,2013-03-08 14:55:00,
2013-03-08 09:57:00,31.1,29.8,29.91,NNE,13,6.0,15.0,95,0.00,,,0.00,Wunderground v.1.15,2013-03-08 14:57:00,
2013-03-08 10:00:00,31.2,29.9,29.91,NNE,13,7.0,17.0,95,0.00,,,0.00,Wunderground v.1.15,2013-03-08 15:00:00,
2013-03-08 10:01:00,31.2,29.9,29.91,NNE,31,7.0,17.0,95,0.00,,,0.00,Wunderground v.1.15,2013-03-08 15:01:00,
2013-03-08 10:03:00,31.3,30.0,29.91,North,5,8.0,17.0,95,0.00,,,0.00,Wunderground v.1.15,2013-03-08 15:03:00,
2013-03-08 10:06:00,31.5,30.0,29.91,NNE,12,9.0,17.0,94,0.00,,,0.00,Wunderground v.1.15,2013-03-08 15:06:00,
2013-03-08 10:07:00,31.5,30.0,29.90,NE,44,9.0,17.0,94,0.00,,,0.00,Wunderground v.1.15,2013-03-08 15:07:00,
2013-03-08 10:11:00,31.6,30.1,29.90,North,355,9.0,10.0,94,0.00,,,0.00,Wunderground v.1.15,2013-03-08 15:11:00,
2013-03-08 10:13:00,31.7,30.2,29.91,NNE,32,10.0,17.0,94,0.00,,,0.00,Wunderground v.1.15,2013-03-08 15:13:00,
2013-03-08 10:16:00,31.8,30.0,29.90,North,360,10.0,17.0,93,0.00,,,0.00,Wunderground v.1.15,2013-03-08 15:16:00,
2013-03-08 10:17:00,31.8,30.0,29.91,NNE,13,10.0,17.0,93,0.00,,,0.00,Wunderground v.1.15,2013-03-08 15:17:00,
2013-03-08 10:18:00,31.9,30.1,29.90,North,5,10.0,17.0,93,0.00,,,0.00,Wunderground v.1.15,2013-03-08 15:18:00,
2013-03-08 10:22:00,32.0,30.2,29.90,North,5,9.0,17.0,93,0.00,,,0.00,Wunderground v.1.15,2013-03-08 15:22:00,
2013-03-08 10:23:00,32.1,30.3,29.90,NE,44,9.0,17.0,93,0.00,,,0.00,Wunderground v.1.15,2013-03-08 15:23:00,
2013-03-08 10:24:00,32.1,30.3,29.90,North,349,8.0,17.0,93,0.00,,,0.00,Wunderground v.1.15,2013-03-08 15:24:00,
2013-03-08 10:26:00,32.2,30.1,29.90,North,9,9.0,17.0,92,0.00,,,0.00,Wunderground v.1.15,2013-03-08 15:26:00,
2013-03-08 10:27:00,32.2,30.1,29.90,NNE,27,9.0,17.0,92,0.00,,,0.00,Wunderground v.1.15,2013-03-08 15:27:00,
2013-03-08 10:30:00,32.3,30.2,29.90,NE,44,9.0,17.0,92,0.00,,,0.00,Wunderground v.1.15,2013-03-08 15:30:00,
2013-03-08 10:31:00,32.3,30.2,29.90,NE,34,10.0,17.0,92,0.00,,,0.00,Wunderground v.1.15,2013-03-08 15:31:00,
2013-03-08 10:33:00,32.3,30.2,29.90,NNE,17,10.0,17.0,92,0.00,,,0.00,Wunderground v.1.15,2013-03-08 15:33:00,
2013-03-08 10:34:00,32.4,30.3,29.91,NE,38,10.0,17.0,92,0.00,,,0.00,Wunderground v.1.15,2013-03-08 15:34:00,
2013-03-08 10:38:00,32.4,30.3,29.91,NNE,23,10.0,17.0,92,0.00,,,0.00,Wunderground v.1.15,2013-03-08 15:38:00,
2013-03-08 10:40:00,32.5,30.2,29.91,NNE,27,10.0,10.0,91,0.00,,,0.00,Wunderground v.1.15,2013-03-08 15:40:00,
2013-03-08 10:43:00,32.5,30.2,29.91,NE,44,10.0,17.0,91,0.00,,,0.00,Wunderground v.1.15,2013-03-08 15:43:00,
2013-03-08 10:44:00,32.5,30.2,29.91,NNE,26,10.0,17.0,91,0.00,,,0.00,Wunderground v.1.15,2013-03-08 15:44:00,
2013-03-08 10:45:00,32.6,30.3,29.91,NNE,17,10.0,17.0,91,0.00,,,0.00,Wunderground v.1.15,2013-03-08 15:45:00,
2013-03-08 10:48:00,32.6,30.3,29.91,NE,50,10.0,17.0,91,0.00,,,0.00,Wunderground v.1.15,2013-03-08 15:48:00,
2013-03-08 10:49:00,32.6,30.3,29.91,NNW,342,10.0,17.0,91,0.00,,,0.00,Wunderground v.1.15,2013-03-08 15:49:00,
2013-03-08 10:51:00,32.6,30.3,29.91,NNE,14,11.0,14.0,91,0.00,,,0.00,Wunderground v.1.15,2013-03-08 15:51:00,
2013-03-08 10:54:00,32.8,30.5,29.91,NNW,346,11.0,17.0,91,0.00,,,0.00,Wunderground v.1.15,2013-03-08 15:54:00,
2013-03-08 10:55:00,32.8,30.5,29.92,North,355,10.0,17.0,91,0.00,,,0.00,Wunderground v.1.15,2013-03-08 15:55:00,
2013-03-08 10:58:00,32.9,30.3,29.91,NNE,16,11.0,17.0,90,0.00,,,0.00,Wunderground v.1.15,2013-03-08 15:58:00,
2013-03-08 11:00:00,32.9,30.3,29.92,NE,34,11.0,21.0,90,0.00,,,0.00,Wunderground v.1.15,2013-03-08 16:00:00,
2013-03-08 11:02:00,32.9,30.3,29.92,NNE,17,11.0,21.0,90,0.00,,,0.00,Wunderground v.1.15,2013-03-08 16:02:00,
2013-03-08 11:06:00,32.9,30.3,29.91,NNW,342,12.0,21.0,90,0.00,,,0.00,Wunderground v.1.15,2013-03-08 16:06:00,
2013-03-08 11:08:00,33.0,30.1,29.92,North,9,12.0,21.0,89,0.00,,,0.00,Wunderground v.1.15,2013-03-08 16:08:00,
2013-03-08 11:10:00,33.0,30.1,29.92,NNE,17,12.0,21.0,89,0.00,,,0.00,Wunderground v.1.15,2013-03-08 16:10:00,
2013-03-08 11:12:00,33.0,30.1,29.92,NE,34,12.0,21.0,89,0.00,,,0.00,Wunderground v.1.15,2013-03-08 16:12:00,
2013-03-08 11:13:00,33.0,30.1,29.92,NNE,29,12.0,21.0,89,0.00,,,0.00,Wunderground v.1.15,2013-03-08 16:13:00,
2013-03-08 11:16:00,33.1,30.2,29.92,North,9,12.0,21.0,89,0.00,,,0.00,Wunderground v.1.15,2013-03-08 16:16:00,
2013-03-08 11:17:00,33.1,30.2,29.92,NNE,22,12.0,21.0,89,0.00,,,0.00,Wunderground v.1.15,2013-03-08 16:17:00,
2013-03-08 11:18:00,33.1,30.2,29.92,NNE,27,12.0,21.0,89,0.00,,,0.00,Wunderground v.1.15,2013-03-08 16:18:00,
2013-03-08 11:19:00,33.0,30.1,29.92,NE,38,13.0,21.0,89,0.00,,,0.00,Wunderground v.1.15,2013-03-08 16:19:00,
2013-03-08 11:21:00,33.1,30.2,29.92,NE,34,13.0,21.0,89,0.00,,,0.00,Wunderground v.1.15,2013-03-08 16:21:00,
2013-03-08 11:23:00,33.1,30.2,29.92,NE,39,13.0,21.0,89,0.00,,,0.00,Wunderground v.1.15,2013-03-08 16:23:00,
2013-03-08 11:24:00,33.1,30.2,29.92,NNE,17,12.0,21.0,89,0.00,,,0.00,Wunderground v.1.15,2013-03-08 16:24:00,
2013-03-08 11:26:00,33.2,30.3,29.92,NNE,18,12.0,21.0,89,0.00,,,0.00,Wunderground v.1.15,2013-03-08 16:26:00,
2013-03-08 11:29:00,33.2,30.3,29.92,NE,40,11.0,21.0,89,0.00,,,0.00,Wunderground v.1.15,2013-03-08 16:29:00,
2013-03-08 11:30:00,33.2,30.3,29.92,NNE,15,11.0,21.0,89,0.00,,,0.00,Wunderground v.1.15,2013-03-08 16:30:00,
2013-03-08 11:32:00,33.2,30.3,29.92,NNE,28,10.0,21.0,89,0.00,,,0.00,Wunderground v.1.15,2013-03-08 16:32:00,
2013-03-08 11:34:00,33.3,30.4,29.92,NNE,20,11.0,21.0,89,0.00,,,0.00,Wunderground v.1.15,2013-03-08 16:34:00,
2013-03-08 11:35:00,33.3,30.4,29.92,NNE,15,11.0,21.0,89,0.00,,,0.00,Wunderground v.1.15,2013-03-08 16:35:00,
2013-03-08 11:36:00,33.3,30.1,29.92,NNE,13,11.0,21.0,88,0.00,,,0.00,Wunderground v.1.15,2013-03-08 16:36:00,
2013-03-08 11:38:00,33.4,30.2,29.92,NNE,28,12.0,21.0,88,0.00,,,0.00,Wunderground v.1.15,2013-03-08 16:38:00,
2013-03-08 11:41:00,33.4,30.2,29.92,NNE,15,11.0,21.0,88,0.00,,,0.00,Wunderground v.1.15,2013-03-08 16:41:00,
2013-03-08 11:42:00,33.4,30.2,29.92,NE,34,11.0,21.0,88,0.00,,,0.00,Wunderground v.1.15,2013-03-08 16:42:00,
2013-03-08 11:44:00,33.5,30.3,29.93,NNE,26,11.0,21.0,88,0.00,,,0.00,Wunderground v.1.15,2013-03-08 16:44:00,
2013-03-08 11:47:00,33.5,30.3,29.93,North,10,10.0,21.0,88,0.00,,,0.00,Wunderground v.1.15,2013-03-08 16:47:00,
2013-03-08 11:49:00,33.5,30.3,29.93,North,5,10.0,21.0,88,0.00,,,0.00,Wunderground v.1.15,2013-03-08 16:49:00,
2013-03-08 11:50:00,33.5,30.3,29.93,NNE,26,10.0,21.0,88,0.00,,,0.01,Wunderground v.1.15,2013-03-08 16:50:00,
2013-03-08 11:51:00,33.5,30.3,29.93,North,355,11.0,21.0,88,0.00,,,0.01,Wunderground v.1.15,2013-03-08 16:51:00,
2013-03-08 11:55:00,33.6,30.4,29.93,NNE,21,10.0,21.0,88,0.00,,,0.01,Wunderground v.1.15,2013-03-08 16:55:00,
2013-03-08 11:56:00,33.7,30.2,29.93,NNE,15,10.0,21.0,87,0.00,,,0.01,Wunderground v.1.15,2013-03-08 16:56:00,
2013-03-08 12:00:00,33.7,30.2,29.93,NNE,17,10.0,20.0,87,0.00,,,0.01,Wunderground v.1.15,2013-03-08 17:00:00,
2013-03-08 12:02:00,33.7,30.2,29.93,NNE,14,10.0,20.0,87,0.00,,,0.01,Wunderground v.1.15,2013-03-08 17:02:00,
2013-03-08 12:04:00,33.8,30.3,29.93,NE,37,10.0,20.0,87,0.00,,,0.01,Wunderground v.1.15,2013-03-08 17:04:00,
2013-03-08 12:06:00,33.8,30.3,29.93,North,5,11.0,20.0,87,0.00,,,0.01,Wunderground v.1.15,2013-03-08 17:06:00,
2013-03-08 12:08:00,33.8,30.3,29.93,NNW,346,11.0,20.0,87,0.00,,,0.01,Wunderground v.1.15,2013-03-08 17:08:00,
2013-03-08 12:11:00,33.8,30.3,29.93,North,355,10.0,20.0,87,0.00,,,0.01,Wunderground v.1.15,2013-03-08 17:11:00,
2013-03-08 12:12:00,33.8,30.3,29.93,NNE,22,10.0,20.0,87,0.00,,,0.01,Wunderground v.1.15,2013-03-08 17:12:00,
2013-03-08 12:13:00,33.9,30.4,29.93,NNE,14,10.0,20.0,87,0.00,,,0.01,Wunderground v.1.15,2013-03-08 17:13:00,
2013-03-08 12:17:00,34.0,30.5,29.92,North,9,10.0,20.0,87,0.00,,,0.01,Wunderground v.1.15,2013-03-08 17:17:00,
2013-03-08 12:20:00,34.1,30.6,29.93,NE,36,9.0,20.0,87,0.00,,,0.01,Wunderground v.1.15,2013-03-08 17:20:00,
2013-03-08 12:23:00,34.2,30.4,29.93,NE,51,10.0,20.0,86,0.00,,,0.01,Wunderground v.1.15,2013-03-08 17:23:00,
2013-03-08 12:24:00,34.2,30.4,29.93,NE,36,10.0,20.0,86,0.00,,,0.01,Wunderground v.1.15,2013-03-08 17:24:00,
2013-03-08 12:26:00,34.2,30.4,29.93,NE,52,10.0,20.0,86,0.00,,,0.01,Wunderground v.1.15,2013-03-08 17:26:00,
2013-03-08 12:27:00,34.2,30.4,29.93,NNE,31,10.0,20.0,86,0.00,,,0.01,Wunderground v.1.15,2013-03-08 17:27:00,
2013-03-08 12:31:00,34.4,30.4,29.93,NE,51,11.0,20.0,85,0.00,,,0.01,Wunderground v.1.15,2013-03-08 17:31:00,
2013-03-08 12:33:00,34.4,30.4,29.93,NE,38,11.0,20.0,85,0.00,,,0.01,Wunderground v.1.15,2013-03-08 17:33:00,
2013-03-08 12:35:00,34.4,30.4,29.93,NE,51,11.0,20.0,85,0.00,,,0.01,Wunderground v.1.15,2013-03-08 17:35:00,
2013-03-08 12:37:00,34.4,30.6,29.93,NE,39,11.0,20.0,86,0.00,,,0.01,Wunderground v.1.15,2013-03-08 17:37:00,
2013-03-08 12:38:00,34.4,30.6,29.93,North,360,11.0,20.0,86,0.00,,,0.01,Wunderground v.1.15,2013-03-08 17:38:00,
2013-03-08 12:40:00,34.6,30.6,29.93,SE,130,10.0,10.0,85,0.00,,,0.01,Wunderground v.1.15,2013-03-08 17:40:00,
2013-03-08 12:43:00,34.6,30.6,29.93,NNE,28,10.0,20.0,85,0.00,,,0.02,Wunderground v.1.15,2013-03-08 17:43:00,
2013-03-08 12:44:00,34.6,30.6,29.93,NNE,18,11.0,20.0,85,0.00,,,0.02,Wunderground v.1.15,2013-03-08 17:44:00,
2013-03-08 12:45:00,34.6,30.6,29.93,ENE,64,11.0,20.0,85,0.00,,,0.02,Wunderground v.1.15,2013-03-08 17:45:00,
2013-03-08 12:48:00,34.6,30.6,29.93,NNW,341,12.0,20.0,85,0.00,,,0.02,Wunderground v.1.15,2013-03-08 17:48:00,
2013-03-08 12:51:00,34.7,30.7,29.93,NNE,26,11.0,20.0,85,0.00,,,0.02,Wunderground v.1.15,2013-03-08 17:51:00,
2013-03-08 12:53:00,34.8,30.8,29.93,NNE,31,11.0,20.0,85,0.00,,,0.02,Wunderground v.1.15,2013-03-08 17:53:00,
2013-03-08 12:56:00,34.8,30.8,29.93,NE,36,10.0,20.0,85,0.00,,,0.02,Wunderground v.1.15,2013-03-08 17:56:00,
2013-03-08 12:58:00,34.8,30.8,29.93,NNE,17,10.0,20.0,85,0.00,,,0.02,Wunderground v.1.15,2013-03-08 17:58:00,
2013-03-08 13:00:00,34.9,30.6,29.93,NNE,19,11.0,21.0,84,0.00,,,0.02,Wunderground v.1.15,2013-03-08 18:00:00,
2013-03-08 13:04:00,35.0,30.7,29.93,North,350,12.0,21.0,84,0.00,,,0.02,Wunderground v.1.15,2013-03-08 18:04:00,
2013-03-08 13:06:00,35.0,30.7,29.93,North,5,12.0,21.0,84,0.00,,,0.02,Wunderground v.1.15,2013-03-08 18:06:00,
2013-03-08 13:07:00,35.0,30.7,29.93,North,360,12.0,21.0,84,0.00,,,0.02,Wunderground v.1.15,2013-03-08 18:07:00,
2013-03-08 13:10:00,35.1,30.5,29.93,NNE,23,11.0,11.0,83,0.00,,,0.02,Wunderground v.1.15,2013-03-08 18:10:00,
2013-03-08 13:13:00,35.2,30.3,29.92,NNE,21,11.0,21.0,82,0.00,,,0.02,Wunderground v.1.15,2013-03-08 18:13:00,
2013-03-08 13:14:00,35.3,30.1,29.93,NNE,22,11.0,21.0,81,0.00,,,0.02,Wunderground v.1.15,2013-03-08 18:14:00,
2013-03-08 13:15:00,35.3,29.7,29.93,NE,54,11.0,21.0,80,0.00,,,0.02,Wunderground v.1.15,2013-03-08 18:15:00,
2013-03-08 13:16:00,35.3,29.7,29.93,NNW,331,11.0,21.0,80,0.00,,,0.02,Wunderground v.1.15,2013-03-08 18:16:00,
2013-03-08 13:20:00,35.3,28.8,29.93,NE,45,11.0,21.0,77,0.00,,,0.02,Wunderground v.1.15,2013-03-08 18:20:00,
2013-03-08 13:21:00,35.4,28.9,29.93,NE,34,11.0,21.0,77,0.00,,,0.02,Wunderground v.1.15,2013-03-08 18:21:00,
2013-03-08 13:26:00,35.6,28.1,29.92,NNE,15,12.0,21.0,74,0.00,,,0.02,Wunderground v.1.15,2013-03-08 18:26:00,
2013-03-08 13:28:00,35.7,28.2,29.93,NNE,17,12.0,21.0,74,0.00,,,0.02,Wunderground v.1.15,2013-03-08 18:28:00,
2013-03-08 13:31:00,35.9,29.4,29.93,NNE,28,11.0,21.0,77,0.00,,,0.02,Wunderground v.1.15,2013-03-08 18:31:00,
2013-03-08 13:32:00,35.9,29.7,29.93,NNE,21,10.0,21.0,78,0.00,,,0.02,Wunderground v.1.15,2013-03-08 18:32:00,
2013-03-08 13:34:00,36.1,29.9,29.93,NE,34,9.0,21.0,78,0.00,,,0.02,Wunderground v.1.15,2013-03-08 18:34:00,
2013-03-08 13:37:00,36.2,29.4,29.93,NNE,30,9.0,21.0,76,0.00,,,0.02,Wunderground v.1.15,2013-03-08 18:37:00,
2013-03-08 13:38:00,36.3,29.1,29.93,NNE,32,9.0,21.0,75,0.00,,,0.02,Wunderground v.1.15,2013-03-08 18:38:00,
2013-03-08 13:39:00,36.4,28.9,29.93,NNE,15,9.0,21.0,74,0.00,,,0.02,Wunderground v.1.15,2013-03-08 18:39:00,
2013-03-08 13:42:00,36.6,28.4,29.93,NNE,18,9.0,21.0,72,0.00,,,0.02,Wunderground v.1.15,2013-03-08 18:42:00,
2013-03-08 13:44:00,36.7,28.2,29.93,NNE,17,9.0,21.0,71,0.00,,,0.02,Wunderground v.1.15,2013-03-08 18:44:00,
2013-03-08 13:46:00,36.9,28.4,29.93,NE,42,9.0,21.0,71,0.00,,,0.02,Wunderground v.1.15,2013-03-08 18:46:00,
2013-03-08 13:48:00,36.9,28.4,29.93,NNE,32,9.0,21.0,71,0.00,,,0.02,Wunderground v.1.15,2013-03-08 18:48:00,
2013-03-08 13:50:00,36.8,28.3,29.93,NNE,17,9.0,9.0,71,0.00,,,0.02,Wunderground v.1.15,2013-03-08 18:50:00,
2013-03-08 13:52:00,36.8,28.3,29.93,NNE,14,9.0,21.0,71,0.00,,,0.02,Wunderground v.1.15,2013-03-08 18:52:00,
2013-03-08 13:54:00,36.8,28.3,29.94,North,360,9.0,21.0,71,0.00,,,0.02,Wunderground v.1.15,2013-03-08 18:54:00,
2013-03-08 13:55:00,36.9,28.4,29.94,NNE,19,8.0,21.0,71,0.00,,,0.02,Wunderground v.1.15,2013-03-08 18:55:00,
2013-03-08 13:56:00,36.9,28.4,29.93,NNE,13,9.0,21.0,71,0.00,,,0.02,Wunderground v.1.15,2013-03-08 18:56:00,
2013-03-08 13:58:00,37.0,28.5,29.93,NNE,16,9.0,21.0,71,0.00,,,0.02,Wunderground v.1.15,2013-03-08 18:58:00,
2013-03-08 14:00:00,36.7,28.2,29.94,North,5,10.0,21.0,71,0.00,,,0.02,Wunderground v.1.15,2013-03-08 19:00:00,
2013-03-08 14:04:00,36.7,28.2,29.94,NE,41,10.0,21.0,71,0.00,,,0.02,Wunderground v.1.15,2013-03-08 19:04:00,
2013-03-08 14:05:00,36.7,28.2,29.94,NNE,24,11.0,21.0,71,0.00,,,0.02,Wunderground v.1.15,2013-03-08 19:05:00,
2013-03-08 14:07:00,36.7,28.5,29.94,NNE,17,11.0,21.0,72,0.00,,,0.02,Wunderground v.1.15,2013-03-08 19:07:00,
2013-03-08 14:11:00,36.9,28.0,29.94,NNE,13,10.0,21.0,70,0.00,,,0.02,Wunderground v.1.15,2013-03-08 19:11:00,
2013-03-08 14:12:00,36.9,28.0,29.94,North,360,10.0,21.0,70,0.00,,,0.02,Wunderground v.1.15,2013-03-08 19:12:00,
2013-03-08 14:16:00,36.9,27.7,29.94,NE,56,10.0,21.0,69,0.00,,,0.03,Wunderground v.1.15,2013-03-08 19:16:00,
2013-03-08 14:17:00,36.9,28.0,29.94,NNE,17,10.0,21.0,70,0.00,,,0.03,Wunderground v.1.15,2013-03-08 19:17:00,
2013-03-08 14:19:00,36.9,28.0,29.94,NE,40,11.0,21.0,70,0.00,,,0.03,Wunderground v.1.15,2013-03-08 19:19:00,
2013-03-08 14:22:00,37.1,27.9,29.94,NNE,15,11.0,21.0,69,0.00,,,0.03,Wunderground v.1.15,2013-03-08 19:22:00,
2013-03-08 14:23:00,37.1,27.9,29.94,ENE,67,11.0,21.0,69,0.00,,,0.03,Wunderground v.1.15,2013-03-08 19:23:00,
2013-03-08 14:28:00,37.3,27.3,29.94,NNE,30,9.0,21.0,67,0.00,,,0.03,Wunderground v.1.15,2013-03-08 19:28:00,
2013-03-08 14:29:00,37.3,27.7,29.94,NNE,22,9.0,21.0,68,0.00,,,0.03,Wunderground v.1.15,2013-03-08 19:29:00,
2013-03-08 14:32:00,37.4,27.4,29.94,North,355,9.0,21.0,67,0.00,,,0.03,Wunderground v.1.15,2013-03-08 19:32:00,
2013-03-08 14:35:00,37.5,27.5,29.94,NNE,29,9.0,21.0,67,0.00,,,0.03,Wunderground v.1.15,2013-03-08 19:35:00,
2013-03-08 14:37:00,37.5,27.5,29.94,NE,51,9.0,21.0,67,0.00,,,0.03,Wunderground v.1.15,2013-03-08 19:37:00,
2013-03-08 14:38:00,37.5,27.5,29.94,North,360,9.0,21.0,67,0.00,,,0.03,Wunderground v.1.15,2013-03-08 19:38:00,
2013-03-08 14:40:00,37.5,27.5,29.94,NNE,22,9.0,9.0,67,0.00,,,0.03,Wunderground v.1.15,2013-03-08 19:40:00,
2013-03-08 14:41:00,37.5,27.5,29.94,NNW,344,9.0,21.0,67,0.00,,,0.03,Wunderground v.1.15,2013-03-08 19:41:00,
2013-03-08 14:43:00,37.5,27.2,29.94,NNE,24,9.0,21.0,66,0.00,,,0.03,Wunderground v.1.15,2013-03-08 19:43:00,
2013-03-08 14:44:00,37.5,27.2,29.94,NE,34,10.0,21.0,66,0.00,,,0.03,Wunderground v.1.15,2013-03-08 19:44:00,
2013-03-08 14:45:00,37.5,27.2,29.94,NNE,16,10.0,21.0,66,0.00,,,0.03,Wunderground v.1.15,2013-03-08 19:45:00,
2013-03-08 14:50:00,37.6,26.9,29.94,NE,38,11.0,21.0,65,0.00,,,0.03,Wunderground v.1.15,2013-03-08 19:50:00,
2013-03-08 14:51:00,37.6,26.9,29.94,NNE,22,12.0,21.0,65,0.00,,,0.03,Wunderground v.1.15,2013-03-08 19:51:00,
2013-03-08 14:53:00,37.6,26.9,29.94,NNE,21,11.0,21.0,65,0.00,,,0.03,Wunderground v.1.15,2013-03-08 19:53:00,
2013-03-08 14:55:00,37.8,27.1,29.94,North,355,11.0,21.0,65,0.00,,,0.03,Wunderground v.1.15,2013-03-08 19:55:00,
2013-03-08 14:56:00,37.8,27.1,29.94,North,355,11.0,21.0,65,0.00,,,0.03,Wunderground v.1.15,2013-03-08 19:56:00,
2013-03-08 14:57:00,37.7,27.0,29.94,North,11,11.0,21.0,65,0.00,,,0.03,Wunderground v.1.15,2013-03-08 19:57:00,
2013-03-08 15:03:00,37.9,26.8,29.95,NE,36,10.0,20.0,64,0.00,,,0.03,Wunderground v.1.15,2013-03-08 20:03:00,
2013-03-08 15:04:00,37.8,26.7,29.95,North,349,11.0,20.0,64,0.00,,,0.03,Wunderground v.1.15,2013-03-08 20:04:00,
2013-03-08 15:05:00,37.9,26.8,29.95,NNE,20,11.0,20.0,64,0.00,,,0.03,Wunderground v.1.15,2013-03-08 20:05:00,
2013-03-08 15:06:00,37.8,26.7,29.95,NE,38,11.0,20.0,64,0.00,,,0.03,Wunderground v.1.15,2013-03-08 20:06:00,
2013-03-08 15:09:00,37.8,27.1,29.95,NNE,16,10.0,20.0,65,0.00,,,0.03,Wunderground v.1.15,2013-03-08 20:09:00,
2013-03-08 15:11:00,37.9,26.8,29.95,NNE,24,11.0,20.0,64,0.00,,,0.03,Wunderground v.1.15,2013-03-08 20:11:00,
2013-03-08 15:14:00,37.9,26.8,29.94,NE,42,10.0,20.0,64,0.00,,,0.03,Wunderground v.1.15,2013-03-08 20:14:00,
2013-03-08 15:15:00,38.0,26.9,29.95,NNE,20,10.0,20.0,64,0.00,,,0.03,Wunderground v.1.15,2013-03-08 20:15:00,
2013-03-08 15:16:00,38.0,26.5,29.94,North,360,10.0,20.0,63,0.00,,,0.03,Wunderground v.1.15,2013-03-08 20:16:00,
2013-03-08 15:18:00,38.0,26.9,29.94,North,360,10.0,20.0,64,0.00,,,0.03,Wunderground v.1.15,2013-03-08 20:18:00,
2013-03-08 15:20:00,38.0,26.5,29.94,North,355,10.0,10.0,63,0.00,,,0.03,Wunderground v.1.15,2013-03-08 20:20:00,
2013-03-08 15:22:00,38.1,26.6,29.94,NNE,32,10.0,20.0,63,0.00,,,0.03,Wunderground v.1.15,2013-03-08 20:22:00,
2013-03-08 15:23:00,38.1,26.6,29.94,North,5,10.0,20.0,63,0.00,,,0.03,Wunderground v.1.15,2013-03-08 20:23:00,
2013-03-08 15:25:00,38.1,26.6,29.95,NE,34,10.0,20.0,63,0.00,,,0.03,Wunderground v.1.15,2013-03-08 20:25:00,
2013-03-08 15:26:00,38.1,26.6,29.95,NE,34,10.0,20.0,63,0.00,,,0.03,Wunderground v.1.15,2013-03-08 20:26:00,
2013-03-08 15:29:00,38.2,26.7,29.95,NNE,17,10.0,20.0,63,0.00,,,0.03,Wunderground v.1.15,2013-03-08 20:29:00,
2013-03-08 15:31:00,38.3,26.8,29.95,NNE,24,11.0,20.0,63,0.00,,,0.03,Wunderground v.1.15,2013-03-08 20:31:00,
2013-03-08 15:33:00,38.4,26.5,29.95,NE,47,11.0,20.0,62,0.00,,,0.03,Wunderground v.1.15,2013-03-08 20:33:00,
2013-03-08 15:34:00,38.4,26.9,29.95,North,355,11.0,20.0,63,0.00,,,0.03,Wunderground v.1.15,2013-03-08 20:34:00,
2013-03-08 15:37:00,38.5,26.6,29.95,NNE,23,10.0,20.0,62,0.00,,,0.03,Wunderground v.1.15,2013-03-08 20:37:00,
2013-03-08 15:39:00,38.5,26.6,29.95,NE,34,11.0,20.0,62,0.00,,,0.03,Wunderground v.1.15,2013-03-08 20:39:00,
2013-03-08 15:42:00,38.6,26.7,29.96,North,11,11.0,20.0,62,0.00,,,0.03,Wunderground v.1.15,2013-03-08 20:42:00,
2013-03-08 15:44:00,38.7,26.8,29.96,NNE,32,11.0,20.0,62,0.00,,,0.03,Wunderground v.1.15,2013-03-08 20:44:00,
2013-03-08 15:45:00,38.7,26.4,29.96,NE,50,12.0,20.0,61,0.00,,,0.03,Wunderground v.1.15,2013-03-08 20:45:00,
2013-03-08 15:48:00,38.7,26.8,29.96,North,5,11.0,20.0,62,0.00,,,0.03,Wunderground v.1.15,2013-03-08 20:48:00,
2013-03-08 15:52:00,38.8,26.5,29.96,NE,39,11.0,20.0,61,0.00,,,0.03,Wunderground v.1.15,2013-03-08 20:52:00,
2013-03-08 15:53:00,38.8,26.5,29.96,NE,40,11.0,20.0,61,0.00,,,0.03,Wunderground v.1.15,2013-03-08 20:53:00,
2013-03-08 15:54:00,38.8,26.5,29.96,North,5,11.0,20.0,61,0.00,,,0.03,Wunderground v.1.15,2013-03-08 20:54:00,
2013-03-08 15:59:00,38.9,26.2,29.96,North,9,11.0,20.0,60,0.00,,,0.03,Wunderground v.1.15,2013-03-08 20:59:00,
2013-03-08 16:00:00,38.9,26.2,29.96,NE,49,11.0,11.0,60,0.00,,,0.03,Wunderground v.1.15,2013-03-08 21:00:00,
2013-03-08 16:01:00,38.9,26.2,29.96,NNE,21,11.0,22.0,60,0.00,,,0.03,Wunderground v.1.15,2013-03-08 21:01:00,
2013-03-08 16:05:00,39.0,26.3,29.96,NNE,29,11.0,22.0,60,0.00,,,0.03,Wunderground v.1.15,2013-03-08 21:05:00,
2013-03-08 16:06:00,39.0,26.3,29.96,NE,34,11.0,22.0,60,0.00,,,0.03,Wunderground v.1.15,2013-03-08 21:06:00,
2013-03-08 16:09:00,39.1,26.4,29.96,NNW,344,11.0,22.0,60,0.00,,,0.03,Wunderground v.1.15,2013-03-08 21:09:00,
2013-03-08 16:10:00,39.1,26.4,29.96,NNE,25,10.0,22.0,60,0.00,,,0.03,Wunderground v.1.15,2013-03-08 21:10:00,
2013-03-08 16:13:00,39.1,26.4,29.96,NNE,15,11.0,22.0,60,0.00,,,0.03,Wunderground v.1.15,2013-03-08 21:13:00,
2013-03-08 16:16:00,39.2,26.1,29.97,NNE,20,11.0,22.0,59,0.00,,,0.03,Wunderground v.1.15,2013-03-08 21:16:00,
2013-03-08 16:17:00,39.2,26.1,29.97,East,81,11.0,22.0,59,0.00,,,0.03,Wunderground v.1.15,2013-03-08 21:17:00,
2013-03-08 16:18:00,39.3,26.6,29.97,North,350,11.0,22.0,60,0.00,,,0.03,Wunderground v.1.15,2013-03-08 21:18:00,
2013-03-08 16:20:00,39.3,26.2,29.97,North,355,11.0,11.0,59,0.00,,,0.03,Wunderground v.1.15,2013-03-08 21:20:00,
2013-03-08 16:22:00,39.3,26.6,29.97,North,350,11.0,22.0,60,0.00,,,0.03,Wunderground v.1.15,2013-03-08 21:22:00,
2013-03-08 16:23:00,39.3,26.6,29.97,North,355,11.0,22.0,60,0.00,,,0.03,Wunderground v.1.15,2013-03-08 21:23:00,
2013-03-08 16:25:00,39.4,26.2,29.97,NNE,26,11.0,22.0,59,0.00,,,0.03,Wunderground v.1.15,2013-03-08 21:25:00,
2013-03-08 16:27:00,39.4,26.2,29.97,NNE,13,10.0,22.0,59,0.00,,,0.03,Wunderground v.1.15,2013-03-08 21:27:00,
2013-03-08 16:30:00,39.5,26.3,29.97,NNE,13,10.0,10.0,59,0.00,,,0.03,Wunderground v.1.15,2013-03-08 21:30:00,
2013-03-08 16:31:00,39.6,26.4,29.97,NNE,24,10.0,22.0,59,0.00,,,0.03,Wunderground v.1.15,2013-03-08 21:31:00,
2013-03-08 16:32:00,39.6,26.4,29.98,NE,46,9.0,22.0,59,0.00,,,0.03,Wunderground v.1.15,2013-03-08 21:32:00,
2013-03-08 16:33:00,39.6,26.4,29.98,NNW,334,10.0,22.0,59,0.00,,,0.03,Wunderground v.1.15,2013-03-08 21:33:00,
2013-03-08 16:36:00,39.6,26.4,29.98,NE,52,9.0,22.0,59,0.00,,,0.03,Wunderground v.1.15,2013-03-08 21:36:00,
2013-03-08 16:39:00,39.7,26.1,29.98,NE,48,9.0,22.0,58,0.00,,,0.03,Wunderground v.1.15,2013-03-08 21:39:00,
2013-03-08 16:40:00,39.7,26.1,29.98,NE,40,9.0,9.0,58,0.00,,,0.03,Wunderground v.1.15,2013-03-08 21:40:00,
2013-03-08 16:42:00,39.7,26.1,29.98,NNE,23,10.0,22.0,58,0.00,,,0.03,Wunderground v.1.15,2013-03-08 21:42:00,
2013-03-08 16:45:00,39.8,26.2,29.99,NNE,30,9.0,22.0,58,0.00,,,0.03,Wunderground v.1.15,2013-03-08 21:45:00,
2013-03-08 16:46:00,39.8,26.2,29.98,North,5,9.0,22.0,58,0.00,,,0.03,Wunderground v.1.15,2013-03-08 21:46:00,
2013-03-08 16:47:00,39.8,26.2,29.99,NNE,28,9.0,22.0,58,0.00,,,0.03,Wunderground v.1.15,2013-03-08 21:47:00,
2013-03-08 16:49:00,39.8,26.2,29.99,North,11,9.0,22.0,58,0.00,,,0.03,Wunderground v.1.15,2013-03-08 21:49:00,
2013-03-08 16:52:00,39.8,26.2,29.99,North,5,9.0,22.0,58,0.00,,,0.03,Wunderground v.1.15,2013-03-08 21:52:00,
2013-03-08 16:54:00,39.8,26.2,29.99,NNE,26,9.0,22.0,58,0.00,,,0.03,Wunderground v.1.15,2013-03-08 21:54:00,
2013-03-08 16:55:00,39.8,26.2,29.99,NNE,18,8.0,22.0,58,0.00,,,0.03,Wunderground v.1.15,2013-03-08 21:55:00,
2013-03-08 16:57:00,39.9,26.3,29.99,NNE,26,9.0,22.0,58,0.00,,,0.03,Wunderground v.1.15,2013-03-08 21:57:00,
2013-03-08 17:01:00,40.0,26.4,29.99,NNE,31,9.0,10.0,58,0.00,,,0.03,Wunderground v.1.15,2013-03-08 22:01:00,
2013-03-08 17:04:00,40.0,26.0,29.99,North,11,9.0,17.0,57,0.00,,,0.03,Wunderground v.1.15,2013-03-08 22:04:00,
2013-03-08 17:05:00,40.0,26.0,29.99,NE,38,9.0,17.0,57,0.00,,,0.03,Wunderground v.1.15,2013-03-08 22:05:00,
2013-03-08 17:10:00,40.1,26.1,29.99,NNE,27,9.0,17.0,57,0.00,,,0.03,Wunderground v.1.15,2013-03-08 22:10:00,
2013-03-08 17:11:00,40.1,26.1,29.99,NE,40,9.0,17.0,57,0.00,,,0.03,Wunderground v.1.15,2013-03-08 22:11:00,
2013-03-08 17:14:00,40.1,26.5,29.99,NW,306,9.0,17.0,58,0.00,,,0.03,Wunderground v.1.15,2013-03-08 22:14:00,
2013-03-08 17:16:00,40.1,26.1,30.00,NNE,28,9.0,17.0,57,0.00,,,0.03,Wunderground v.1.15,2013-03-08 22:16:00,
2013-03-08 17:18:00,40.1,27.7,29.99,NNE,20,8.0,17.0,61,0.00,,,0.03,Wunderground v.1.15,2013-03-08 22:18:00,
2013-03-08 17:19:00,40.2,26.2,30.00,North,360,8.0,17.0,57,0.00,,,0.03,Wunderground v.1.15,2013-03-08 22:19:00,
2013-03-08 17:21:00,40.2,26.2,30.00,NE,39,8.0,14.0,57,0.00,,,0.03,Wunderground v.1.15,2013-03-08 22:21:00,
2013-03-08 17:22:00,40.2,25.7,30.00,North,360,8.0,17.0,56,0.00,,,0.03,Wunderground v.1.15,2013-03-08 22:22:00,
2013-03-08 17:24:00,40.3,26.3,30.00,NE,34,8.0,17.0,57,0.00,,,0.03,Wunderground v.1.15,2013-03-08 22:24:00,
2013-03-08 17:28:00,40.3,26.3,30.00,NE,38,8.0,17.0,57,0.00,,,0.03,Wunderground v.1.15,2013-03-08 22:28:00,
2013-03-08 17:29:00,40.3,25.8,30.00,NNE,33,9.0,17.0,56,0.00,,,0.03,Wunderground v.1.15,2013-03-08 22:29:00,
2013-03-08 17:30:00,40.3,26.3,30.00,NE,38,8.0,8.0,57,0.00,,,0.03,Wunderground v.1.15,2013-03-08 22:30:00,
2013-03-08 17:33:00,40.3,25.8,30.00,NNE,28,7.0,17.0,56,0.00,,,0.03,Wunderground v.1.15,2013-03-08 22:33:00,
2013-03-08 17:34:00,40.3,25.8,30.00,NNE,22,7.0,17.0,56,0.00,,,0.03,Wunderground v.1.15,2013-03-08 22:34:00,
2013-03-08 17:35:00,40.3,25.8,30.00,NNE,24,7.0,17.0,56,0.00,,,0.03,Wunderground v.1.15,2013-03-08 22:35:00,
2013-03-08 17:37:00,40.4,25.9,30.00,NE,34,8.0,17.0,56,0.00,,,0.03,Wunderground v.1.15,2013-03-08 22:37:00,
2013-03-08 17:38:00,40.4,25.9,30.00,NE,40,8.0,17.0,56,0.00,,,0.03,Wunderground v.1.15,2013-03-08 22:38:00,
2013-03-08 17:39:00,40.4,25.9,30.00,NNE,33,7.0,17.0,56,0.00,,,0.03,Wunderground v.1.15,2013-03-08 22:39:00,
2013-03-08 17:43:00,40.4,25.9,30.00,NNE,30,7.0,17.0,56,0.00,,,0.03,Wunderground v.1.15,2013-03-08 22:43:00,
2013-03-08 17:45:00,40.4,25.9,30.00,NNE,24,7.0,17.0,56,0.00,,,0.03,Wunderground v.1.15,2013-03-08 22:45:00,
2013-03-08 17:46:00,40.4,25.9,30.00,NNE,25,7.0,17.0,56,0.00,,,0.03,Wunderground v.1.15,2013-03-08 22:46:00,
2013-03-08 17:49:00,40.5,26.0,30.00,NNE,33,7.0,17.0,56,0.00,,,0.03,Wunderground v.1.15,2013-03-08 22:49:00,
2013-03-08 17:50:00,40.5,26.0,30.01,NNE,21,7.0,17.0,56,0.00,,,0.03,Wunderground v.1.15,2013-03-08 22:50:00,
2013-03-08 17:51:00,40.5,26.0,30.00,NNE,23,7.0,17.0,56,0.00,,,0.03,Wunderground v.1.15,2013-03-08 22:51:00,
2013-03-08 17:54:00,40.5,26.0,30.01,NE,36,8.0,17.0,56,0.00,,,0.03,Wunderground v.1.15,2013-03-08 22:54:00,
2013-03-08 17:56:00,40.6,25.7,30.01,NE,53,8.0,17.0,55,0.00,,,0.03,Wunderground v.1.15,2013-03-08 22:56:00,
2013-03-08 17:58:00,40.6,25.7,30.01,NNE,23,8.0,17.0,55,0.00,,,0.03,Wunderground v.1.15,2013-03-08 22:58:00,
2013-03-08 18:00:00,40.6,25.7,30.01,NNE,15,8.0,8.0,55,0.00,,,0.03,Wunderground v.1.15,2013-03-08 23:00:00,
2013-03-08 18:02:00,40.5,25.6,30.01,North,9,8.0,15.0,55,0.00,,,0.03,Wunderground v.1.15,2013-03-08 23:02:00,
2013-03-08 18:05:00,40.5,26.0,30.01,NE,44,7.0,15.0,56,0.00,,,0.03,Wunderground v.1.15,2013-03-08 23:05:00,
2013-03-08 18:07:00,40.5,26.0,30.01,NNE,33,6.0,15.0,56,0.00,,,0.03,Wunderground v.1.15,2013-03-08 23:07:00,
2013-03-08 18:08:00,40.5,26.0,30.01,NE,34,6.0,15.0,56,0.00,,,0.03,Wunderground v.1.15,2013-03-08 23:08:00,
2013-03-08 18:09:00,40.4,25.9,30.01,NE,34,6.0,15.0,56,0.00,,,0.03,Wunderground v.1.15,2013-03-08 23:09:00,
2013-03-08 18:12:00,40.4,25.9,30.01,NE,34,6.0,15.0,56,0.00,,,0.03,Wunderground v.1.15,2013-03-08 23:12:00,
2013-03-08 18:14:00,40.4,25.9,30.01,North,10,6.0,15.0,56,0.00,,,0.03,Wunderground v.1.15,2013-03-08 23:14:00,
2013-03-08 18:15:00,40.4,25.9,30.02,North,10,6.0,15.0,56,0.00,,,0.03,Wunderground v.1.15,2013-03-08 23:15:00,
2013-03-08 18:18:00,40.4,25.9,30.02,NNE,17,6.0,15.0,56,0.00,,,0.03,Wunderground v.1.15,2013-03-08 23:18:00,
2013-03-08 18:19:00,40.4,25.9,30.02,NE,40,6.0,15.0,56,0.00,,,0.03,Wunderground v.1.15,2013-03-08 23:19:00,
2013-03-08 18:21:00,40.3,25.8,30.02,NNE,24,5.0,6.0,56,0.00,,,0.03,Wunderground v.1.15,2013-03-08 23:21:00,
2013-03-08 18:22:00,40.3,25.8,30.02,NNE,15,5.0,15.0,56,0.00,,,0.03,Wunderground v.1.15,2013-03-08 23:22:00,
2013-03-08 18:26:00,40.2,25.7,30.02,North,5,5.0,15.0,56,0.00,,,0.03,Wunderground v.1.15,2013-03-08 23:26:00,
2013-03-08 18:28:00,40.2,25.7,30.02,NE,36,5.0,15.0,56,0.00,,,0.03,Wunderground v.1.15,2013-03-08 23:28:00,
2013-03-08 18:29:00,40.2,25.7,30.02,NNE,28,6.0,15.0,56,0.00,,,0.03,Wunderground v.1.15,2013-03-08 23:29:00,
2013-03-08 18:30:00,40.2,25.7,30.02,NNE,30,6.0,15.0,56,0.00,,,0.03,Wunderground v.1.15,2013-03-08 23:30:00,
2013-03-08 18:33:00,40.2,25.7,30.02,NNE,14,6.0,15.0,56,0.00,,,0.03,Wunderground v.1.15,2013-03-08 23:33:00,
2013-03-08 18:34:00,40.2,25.7,30.02,NNE,13,6.0,15.0,56,0.00,,,0.03,Wunderground v.1.15,2013-03-08 23:34:00,
2013-03-08 18:36:00,40.2,25.7,30.02,NNE,30,6.0,15.0,56,0.00,,,0.03,Wunderground v.1.15,2013-03-08 23:36:00,
2013-03-08 18:37:00,40.1,25.6,30.02,NE,36,6.0,15.0,56,0.00,,,0.03,Wunderground v.1.15,2013-03-08 23:37:00,
2013-03-08 18:39:00,40.1,25.6,30.02,NNE,24,6.0,15.0,56,0.00,,,0.03,Wunderground v.1.15,2013-03-08 23:39:00,
2013-03-08 18:43:00,40.0,25.6,30.02,NE,37,5.0,15.0,56,0.00,,,0.03,Wunderground v.1.15,2013-03-08 23:43:00,
2013-03-08 18:44:00,39.9,25.5,30.02,NNE,29,5.0,15.0,56,0.00,,,0.03,Wunderground v.1.15,2013-03-08 23:44:00,
2013-03-08 18:45:00,39.9,25.5,30.03,NE,49,5.0,15.0,56,0.00,,,0.03,Wunderground v.1.15,2013-03-08 23:45:00,
2013-03-08 18:48:00,39.8,25.8,30.03,North,11,4.0,15.0,57,0.00,,,0.03,Wunderground v.1.15,2013-03-08 23:48:00,
2013-03-08 18:50:00,39.8,25.4,30.03,NNE,31,5.0,5.0,56,0.00,,,0.03,Wunderground v.1.15,2013-03-08 23:50:00,
2013-03-08 18:53:00,39.8,25.8,30.03,NE,47,5.0,15.0,57,0.00,,,0.03,Wunderground v.1.15,2013-03-08 23:53:00,
2013-03-08 18:54:00,39.7,25.7,30.03,NNE,27,4.0,15.0,57,0.00,,,0.03,Wunderground v.1.15,2013-03-08 23:54:00,
2013-03-08 18:55:00,39.7,25.3,30.03,NE,36,4.0,15.0,56,0.00,,,0.03,Wunderground v.1.15,2013-03-08 23:55:00,
2013-03-08 18:57:00,39.6,25.6,30.03,NNE,30,4.0,15.0,57,0.00,,,0.03,Wunderground v.1.15,2013-03-08 23:57:00,
2013-03-08 18:59:00,39.6,25.6,30.03,NE,40,4.0,15.0,57,0.00,,,0.03,Wunderground v.1.15,2013-03-08 23:59:00,
2013-03-08 19:01:00,39.5,25.5,30.04,NNE,29,4.0,10.0,57,0.00,,,0.03,Wunderground v.1.15,2013-03-09 00:01:00,
2013-03-08 19:04:00,39.4,25.8,30.04,NNE,29,4.0,10.0,58,0.00,,,0.03,Wunderground v.1.15,2013-03-09 00:04:00,
2013-03-08 19:06:00,39.4,25.8,30.04,NNE,32,4.0,10.0,58,0.00,,,0.03,Wunderground v.1.15,2013-03-09 00:06:00,
2013-03-08 19:07:00,39.4,25.8,30.04,NE,35,3.0,10.0,58,0.00,,,0.03,Wunderground v.1.15,2013-03-09 00:07:00,
2013-03-08 19:10:00,39.3,26.2,30.04,NNE,28,4.0,4.0,59,0.00,,,0.03,Wunderground v.1.15,2013-03-09 00:10:00,
2013-03-08 19:12:00,39.3,26.2,30.04,NNE,24,4.0,10.0,59,0.00,,,0.03,Wunderground v.1.15,2013-03-09 00:12:00,
2013-03-08 19:13:00,39.2,26.5,30.04,NNE,31,4.0,10.0,60,0.00,,,0.03,Wunderground v.1.15,2013-03-09 00:13:00,
2013-03-08 19:16:00,39.1,26.4,30.04,NNE,19,4.0,10.0,60,0.00,,,0.03,Wunderground v.1.15,2013-03-09 00:16:00,
2013-03-08 19:18:00,39.0,26.7,30.05,North,11,4.0,10.0,61,0.00,,,0.03,Wunderground v.1.15,2013-03-09 00:18:00,
2013-03-08 19:19:00,39.0,26.7,30.04,North,11,4.0,10.0,61,0.00,,,0.03,Wunderground v.1.15,2013-03-09 00:19:00,
2013-03-08 19:21:00,38.8,26.9,30.05,NNE,26,4.0,10.0,62,0.00,,,0.03,Wunderground v.1.15,2013-03-09 00:21:00,
2013-03-08 19:23:00,38.7,26.8,30.05,North,355,3.0,10.0,62,0.00,,,0.03,Wunderground v.1.15,2013-03-09 00:23:00,
2013-03-08 19:25:00,38.6,26.7,30.05,NNE,30,3.0,10.0,62,0.00,,,0.03,Wunderground v.1.15,2013-03-09 00:25:00,
2013-03-08 19:27:00,38.6,27.1,30.05,NE,36,3.0,10.0,63,0.00,,,0.03,Wunderground v.1.15,2013-03-09 00:27:00,
2013-03-08 19:28:00,38.5,27.0,30.05,North,5,3.0,10.0,63,0.00,,,0.03,Wunderground v.1.15,2013-03-09 00:28:00,
2013-03-08 19:31:00,38.4,27.3,30.05,NNE,28,4.0,7.0,64,0.00,,,0.03,Wunderground v.1.15,2013-03-09 00:31:00,
2013-03-08 19:33:00,38.3,26.8,30.05,NNE,25,4.0,10.0,63,0.00,,,0.03,Wunderground v.1.15,2013-03-09 00:33:00,
2013-03-08 19:36:00,38.2,27.1,30.05,NNE,30,4.0,14.0,64,0.00,,,0.03,Wunderground v.1.15,2013-03-09 00:36:00,
2013-03-08 19:37:00,38.1,27.0,30.05,North,5,4.0,14.0,64,0.00,,,0.03,Wunderground v.1.15,2013-03-09 00:37:00,
2013-03-08 19:38:00,38.1,27.0,30.05,NE,42,4.0,14.0,64,0.00,,,0.03,Wunderground v.1.15,2013-03-09 00:38:00,
2013-03-08 19:43:00,37.9,27.2,30.05,NNE,22,5.0,10.0,65,0.00,,,0.03,Wunderground v.1.15,2013-03-09 00:43:00,
2013-03-08 19:44:00,37.8,27.1,30.05,NNE,30,6.0,10.0,65,0.00,,,0.03,Wunderground v.1.15,2013-03-09 00:44:00,
2013-03-08 19:46:00,37.7,27.0,30.05,NNE,22,6.0,10.0,65,0.00,,,0.03,Wunderground v.1.15,2013-03-09 00:46:00,
2013-03-08 19:49:00,37.7,27.0,30.05,NE,39,6.0,10.0,65,0.00,,,0.03,Wunderground v.1.15,2013-03-09 00:49:00,
2013-03-08 19:51:00,37.7,27.0,30.05,NNE,23,6.0,10.0,65,0.00,,,0.03,Wunderground v.1.15,2013-03-09 00:51:00,
2013-03-08 19:52:00,37.6,26.9,30.05,NNE,13,6.0,10.0,65,0.00,,,0.03,Wunderground v.1.15,2013-03-09 00:52:00,
2013-03-08 19:53:00,37.6,26.9,30.05,North,5,6.0,10.0,65,0.00,,,0.03,Wunderground v.1.15,2013-03-09 00:53:00,
2013-03-08 19:56:00,37.6,26.9,30.06,NNE,13,6.0,10.0,65,0.00,,,0.03,Wunderground v.1.15,2013-03-09 00:56:00,
2013-03-08 19:57:00,37.5,26.8,30.06,NNE,30,6.0,10.0,65,0.00,,,0.03,Wunderground v.1.15,2013-03-09 00:57:00,
2013-03-08 19:58:00,37.5,26.8,30.06,NE,39,6.0,10.0,65,0.00,,,0.03,Wunderground v.1.15,2013-03-09 00:58:00,
2013-03-08 20:03:00,37.4,26.7,30.06,NNE,24,7.0,14.0,65,0.00,,,0.03,Wunderground v.1.15,2013-03-09 01:03:00,
2013-03-08 20:06:00,37.3,27.0,30.06,NNE,31,7.0,14.0,66,0.00,,,0.03,Wunderground v.1.15,2013-03-09 01:06:00,
2013-03-08 20:07:00,37.3,27.0,30.06,NNE,32,7.0,14.0,66,0.00,,,0.03,Wunderground v.1.15,2013-03-09 01:07:00,
2013-03-08 20:10:00,37.1,26.8,30.06,NNE,26,7.0,7.0,66,0.00,,,0.03,Wunderground v.1.15,2013-03-09 01:10:00,
2013-03-08 20:12:00,37.1,26.8,30.06,NNE,26,7.0,14.0,66,0.00,,,0.03,Wunderground v.1.15,2013-03-09 01:12:00,
2013-03-08 20:15:00,37.1,26.8,30.06,NNE,22,7.0,14.0,66,0.00,,,0.03,Wunderground v.1.15,2013-03-09 01:15:00,
2013-03-08 20:17:00,37.0,26.7,30.06,NE,46,7.0,14.0,66,0.00,,,0.03,Wunderground v.1.15,2013-03-09 01:17:00,
2013-03-08 20:18:00,37.0,26.7,30.06,North,5,7.0,14.0,66,0.00,,,0.03,Wunderground v.1.15,2013-03-09 01:18:00,
2013-03-08 20:20:00,37.0,26.7,30.06,NNE,24,7.0,14.0,66,0.00,,,0.03,Wunderground v.1.15,2013-03-09 01:20:00,
2013-03-08 20:22:00,36.9,26.6,30.06,NNE,30,7.0,14.0,66,0.00,,,0.03,Wunderground v.1.15,2013-03-09 01:22:00,
2013-03-08 20:23:00,36.9,26.6,30.06,NNE,26,7.0,14.0,66,0.00,,,0.03,Wunderground v.1.15,2013-03-09 01:23:00,
2013-03-08 20:26:00,36.9,26.6,30.06,NNE,30,7.0,14.0,66,0.00,,,0.03,Wunderground v.1.15,2013-03-09 01:26:00,
2013-03-08 20:28:00,36.9,26.6,30.06,NNE,24,7.0,14.0,66,0.00,,,0.03,Wunderground v.1.15,2013-03-09 01:28:00,
2013-03-08 20:29:00,36.9,26.6,30.06,NNE,29,7.0,14.0,66,0.00,,,0.03,Wunderground v.1.15,2013-03-09 01:29:00,
2013-03-08 20:30:00,36.9,26.6,30.06,NNE,15,7.0,14.0,66,0.00,,,0.03,Wunderground v.1.15,2013-03-09 01:30:00,
2013-03-08 20:32:00,36.8,26.5,30.06,NE,36,7.0,14.0,66,0.00,,,0.03,Wunderground v.1.15,2013-03-09 01:32:00,
2013-03-08 20:35:00,36.8,26.5,30.06,NNE,24,6.0,14.0,66,0.00,,,0.03,Wunderground v.1.15,2013-03-09 01:35:00,
2013-03-08 20:37:00,36.6,26.3,30.07,NNE,27,5.0,14.0,66,0.00,,,0.03,Wunderground v.1.15,2013-03-09 01:37:00,
2013-03-08 20:39:00,36.5,26.6,30.07,NNE,33,4.0,14.0,67,0.00,,,0.03,Wunderground v.1.15,2013-03-09 01:39:00,
2013-03-08 20:40:00,36.5,26.6,30.07,NNE,21,4.0,4.0,67,0.00,,,0.03,Wunderground v.1.15,2013-03-09 01:40:00,
2013-03-08 20:43:00,36.4,26.5,30.07,NNE,32,4.0,14.0,67,0.00,,,0.03,Wunderground v.1.15,2013-03-09 01:43:00,
2013-03-08 20:45:00,36.4,26.5,30.07,NNE,14,4.0,14.0,67,0.00,,,0.03,Wunderground v.1.15,2013-03-09 01:45:00,
2013-03-08 20:47:00,36.3,26.4,30.07,NNE,26,4.0,14.0,67,0.00,,,0.03,Wunderground v.1.15,2013-03-09 01:47:00,
2013-03-08 20:48:00,36.3,26.4,30.07,NNE,21,4.0,14.0,67,0.00,,,0.03,Wunderground v.1.15,2013-03-09 01:48:00,
2013-03-08 20:51:00,36.2,26.3,30.07,NE,36,4.0,14.0,67,0.00,,,0.03,Wunderground v.1.15,2013-03-09 01:51:00,
2013-03-08 20:53:00,36.2,26.3,30.07,NNE,32,4.0,14.0,67,0.00,,,0.03,Wunderground v.1.15,2013-03-09 01:53:00,
2013-03-08 20:55:00,36.1,26.2,30.07,NNE,30,4.0,14.0,67,0.00,,,0.03,Wunderground v.1.15,2013-03-09 01:55:00,
2013-03-08 20:58:00,36.1,26.2,30.07,NNE,32,4.0,14.0,67,0.00,,,0.03,Wunderground v.1.15,2013-03-09 01:58:00,
2013-03-08 20:59:00,36.1,26.2,30.07,NE,38,4.0,14.0,67,0.00,,,0.03,Wunderground v.1.15,2013-03-09 01:59:00,
2013-03-08 21:04:00,36.1,26.2,30.08,NNE,13,6.0,12.0,67,0.00,,,0.03,Wunderground v.1.15,2013-03-09 02:04:00,
2013-03-08 21:06:00,36.1,26.2,30.08,North,360,6.0,12.0,67,0.00,,,0.03,Wunderground v.1.15,2013-03-09 02:06:00,
2013-03-08 21:07:00,36.1,26.2,30.08,NNE,23,6.0,12.0,67,0.00,,,0.03,Wunderground v.1.15,2013-03-09 02:07:00,
2013-03-08 21:10:00,36.1,26.2,30.08,NE,42,6.0,6.0,67,0.00,,,0.03,Wunderground v.1.15,2013-03-09 02:10:00,
2013-03-08 21:12:00,36.0,26.1,30.08,NNE,23,6.0,9.0,67,0.00,,,0.03,Wunderground v.1.15,2013-03-09 02:12:00,
2013-03-08 21:14:00,36.0,26.1,30.08,NNE,33,5.0,9.0,67,0.00,,,0.03,Wunderground v.1.15,2013-03-09 02:14:00,
2013-03-08 21:17:00,35.9,26.0,30.08,NNE,22,5.0,9.0,67,0.00,,,0.03,Wunderground v.1.15,2013-03-09 02:17:00,
2013-03-08 21:18:00,35.8,25.9,30.08,NE,37,5.0,9.0,67,0.00,,,0.03,Wunderground v.1.15,2013-03-09 02:18:00,
2013-03-08 21:20:00,35.8,25.9,30.08,NNE,24,4.0,9.0,67,0.00,,,0.03,Wunderground v.1.15,2013-03-09 02:20:00,
2013-03-08 21:23:00,35.7,25.8,30.08,North,11,5.0,9.0,67,0.00,,,0.03,Wunderground v.1.15,2013-03-09 02:23:00,
2013-03-08 21:24:00,35.7,26.2,30.08,NNE,30,5.0,9.0,68,0.00,,,0.03,Wunderground v.1.15,2013-03-09 02:24:00,
2013-03-08 21:25:00,35.7,26.2,30.08,NNE,30,5.0,9.0,68,0.00,,,0.03,Wunderground v.1.15,2013-03-09 02:25:00,
2013-03-08 21:29:00,35.6,26.1,30.08,North,11,5.0,9.0,68,0.00,,,0.03,Wunderground v.1.15,2013-03-09 02:29:00,
2013-03-08 21:30:00,35.6,26.1,30.08,NNE,17,5.0,9.0,68,0.00,,,0.03,Wunderground v.1.15,2013-03-09 02:30:00,
2013-03-08 21:31:00,35.6,25.7,30.08,NNE,26,5.0,9.0,67,0.00,,,0.03,Wunderground v.1.15,2013-03-09 02:31:00,
2013-03-08 21:33:00,35.6,26.1,30.08,NNE,17,5.0,9.0,68,0.00,,,0.03,Wunderground v.1.15,2013-03-09 02:33:00,
2013-03-08 21:37:00,35.6,25.7,30.08,NNE,30,5.0,9.0,67,0.00,,,0.03,Wunderground v.1.15,2013-03-09 02:37:00,
2013-03-08 21:38:00,35.6,25.7,30.08,NNE,22,5.0,9.0,67,0.00,,,0.03,Wunderground v.1.15,2013-03-09 02:38:00,
2013-03-08 21:39:00,35.6,25.7,30.08,NE,34,5.0,9.0,67,0.00,,,0.03,Wunderground v.1.15,2013-03-09 02:39:00,
2013-03-08 21:44:00,35.6,25.7,30.08,NNE,31,6.0,9.0,67,0.00,,,0.03,Wunderground v.1.15,2013-03-09 02:44:00,
2013-03-08 21:46:00,35.6,25.7,30.09,NNE,15,6.0,9.0,67,0.00,,,0.03,Wunderground v.1.15,2013-03-09 02:46:00,
2013-03-08 21:47:00,35.6,25.7,30.09,NNE,22,6.0,9.0,67,0.00,,,0.03,Wunderground v.1.15,2013-03-09 02:47:00,
2013-03-08 21:52:00,35.6,25.7,30.09,NNE,24,7.0,9.0,67,0.00,,,0.03,Wunderground v.1.15,2013-03-09 02:52:00,
2013-03-08 21:54:00,35.6,25.7,30.09,NNE,26,6.0,9.0,67,0.00,,,0.03,Wunderground v.1.15,2013-03-09 02:54:00,
2013-03-08 21:55:00,35.5,25.6,30.09,NNE,24,6.0,9.0,67,0.00,,,0.03,Wunderground v.1.15,2013-03-09 02:55:00,
2013-03-08 21:57:00,35.5,25.6,30.09,NNE,30,6.0,9.0,67,0.00,,,0.03,Wunderground v.1.15,2013-03-09 02:57:00,
2013-03-08 21:59:00,35.5,25.6,30.09,NNE,24,6.0,9.0,67,0.00,,,0.03,Wunderground v.1.15,2013-03-09 02:59:00,
2013-03-08 22:00:00,35.5,25.6,30.09,NNE,15,6.0,14.0,67,0.00,,,0.03,Wunderground v.1.15,2013-03-09 03:00:00,
2013-03-08 22:02:00,35.4,25.5,30.09,North,9,6.0,14.0,67,0.00,,,0.03,Wunderground v.1.15,2013-03-09 03:02:00,
2013-03-08 22:06:00,35.4,25.5,30.08,NNE,27,6.0,14.0,67,0.00,,,0.03,Wunderground v.1.15,2013-03-09 03:06:00,
2013-03-08 22:07:00,35.3,25.4,30.09,North,355,6.0,14.0,67,0.00,,,0.03,Wunderground v.1.15,2013-03-09 03:07:00,
2013-03-08 22:09:00,35.3,25.8,30.09,NNE,26,6.0,14.0,68,0.00,,,0.03,Wunderground v.1.15,2013-03-09 03:09:00,
2013-03-08 22:11:00,35.3,25.8,30.09,NNE,23,6.0,14.0,68,0.00,,,0.03,Wunderground v.1.15,2013-03-09 03:11:00,
2013-03-08 22:13:00,35.2,25.7,30.09,NNE,33,6.0,14.0,68,0.00,,,0.03,Wunderground v.1.15,2013-03-09 03:13:00,
2013-03-08 22:14:00,35.2,25.7,30.08,NNE,19,6.0,14.0,68,0.00,,,0.03,Wunderground v.1.15,2013-03-09 03:14:00,
2013-03-08 22:15:00,35.1,25.6,30.08,NNE,28,6.0,14.0,68,0.00,,,0.03,Wunderground v.1.15,2013-03-09 03:15:00,
2013-03-08 22:19:00,35.0,25.5,30.08,NNE,32,5.0,14.0,68,0.00,,,0.03,Wunderground v.1.15,2013-03-09 03:19:00,
2013-03-08 22:20:00,34.9,25.4,30.08,NNE,23,5.0,14.0,68,0.00,,,0.03,Wunderground v.1.15,2013-03-09 03:20:00,
2013-03-08 22:21:00,34.8,25.3,30.08,NE,37,4.0,14.0,68,0.00,,,0.03,Wunderground v.1.15,2013-03-09 03:21:00,
2013-03-08 22:22:00,34.8,25.3,30.08,NNE,24,4.0,14.0,68,0.00,,,0.03,Wunderground v.1.15,2013-03-09 03:22:00,
2013-03-08 22:25:00,34.7,25.6,30.09,NNE,25,4.0,14.0,69,0.00,,,0.03,Wunderground v.1.15,2013-03-09 03:25:00,
2013-03-08 22:26:00,34.7,25.6,30.08,NNE,26,5.0,14.0,69,0.00,,,0.03,Wunderground v.1.15,2013-03-09 03:26:00,
2013-03-08 22:28:00,34.6,25.5,30.08,NNE,24,5.0,14.0,69,0.00,,,0.03,Wunderground v.1.15,2013-03-09 03:28:00,
2013-03-08 22:30:00,34.6,25.5,30.08,NNE,28,5.0,5.0,69,0.00,,,0.03,Wunderground v.1.15,2013-03-09 03:30:00,
2013-03-08 22:31:00,34.6,25.5,30.08,NE,44,5.0,14.0,69,0.00,,,0.03,Wunderground v.1.15,2013-03-09 03:31:00,
2013-03-08 22:35:00,34.5,25.4,30.08,NNE,30,4.0,14.0,69,0.00,,,0.03,Wunderground v.1.15,2013-03-09 03:35:00,
2013-03-08 22:36:00,34.5,25.4,30.08,NNE,17,4.0,14.0,69,0.00,,,0.03,Wunderground v.1.15,2013-03-09 03:36:00,
2013-03-08 22:40:00,34.4,25.6,30.08,NE,36,4.0,4.0,70,0.00,,,0.03,Wunderground v.1.15,2013-03-09 03:40:00,
2013-03-08 22:41:00,34.3,25.5,30.08,NNE,24,4.0,14.0,70,0.00,,,0.03,Wunderground v.1.15,2013-03-09 03:41:00,
2013-03-08 22:43:00,34.3,25.5,30.08,NE,44,4.0,14.0,70,0.00,,,0.03,Wunderground v.1.15,2013-03-09 03:43:00,
2013-03-08 22:44:00,34.3,25.5,30.09,NNE,33,4.0,14.0,70,0.00,,,0.03,Wunderground v.1.15,2013-03-09 03:44:00,
2013-03-08 22:49:00,34.3,25.5,30.09,NNE,28,4.0,14.0,70,0.00,,,0.03,Wunderground v.1.15,2013-03-09 03:49:00,
2013-03-08 22:50:00,34.3,25.5,30.09,NE,36,4.0,14.0,70,0.00,,,0.03,Wunderground v.1.15,2013-03-09 03:50:00,
2013-03-08 22:51:00,34.2,25.4,30.09,NNE,24,4.0,14.0,70,0.00,,,0.03,Wunderground v.1.15,2013-03-09 03:51:00,
2013-03-08 22:53:00,34.1,25.3,30.09,NE,38,4.0,14.0,70,0.00,,,0.03,Wunderground v.1.15,2013-03-09 03:53:00,
2013-03-08 22:56:00,34.0,25.2,30.08,NNE,28,3.0,14.0,70,0.00,,,0.03,Wunderground v.1.15,2013-03-09 03:56:00,
2013-03-08 22:57:00,34.0,25.2,30.09,NE,48,3.0,14.0,70,0.00,,,0.03,Wunderground v.1.15,2013-03-09 03:57:00,
2013-03-08 22:58:00,33.9,25.1,30.08,NE,34,4.0,14.0,70,0.00,,,0.03,Wunderground v.1.15,2013-03-09 03:58:00,
2013-03-08 23:00:00,33.9,25.5,30.08,NNE,32,4.0,4.0,71,0.00,,,0.03,Wunderground v.1.15,2013-03-09 04:00:00,
2013-03-08 23:03:00,33.8,25.0,30.08,ESE,115,3.0,10.0,70,0.00,,,0.03,Wunderground v.1.15,2013-03-09 04:03:00,
2013-03-08 23:04:00,33.8,25.4,30.08,NE,45,3.0,10.0,71,0.00,,,0.03,Wunderground v.1.15,2013-03-09 04:04:00,
2013-03-08 23:05:00,33.7,25.3,30.08,NNE,20,3.0,10.0,71,0.00,,,0.03,Wunderground v.1.15,2013-03-09 04:05:00,
2013-03-08 23:06:00,33.6,25.2,30.08,NE,44,3.0,10.0,71,0.00,,,0.03,Wunderground v.1.15,2013-03-09 04:06:00,
2013-03-08 23:10:00,33.4,25.0,30.08,NNE,22,2.0,10.0,71,0.00,,,0.03,Wunderground v.1.15,2013-03-09 04:10:00,
2013-03-08 23:12:00,33.3,25.2,30.08,NE,42,2.0,10.0,72,0.00,,,0.03,Wunderground v.1.15,2013-03-09 04:12:00,
2013-03-08 23:16:00,33.1,25.1,30.08,NNE,16,2.0,10.0,72,0.00,,,0.03,Wunderground v.1.15,2013-03-09 04:16:00,
2013-03-08 23:18:00,33.0,25.0,30.08,NE,36,3.0,10.0,72,0.00,,,0.03,Wunderground v.1.15,2013-03-09 04:18:00,
2013-03-08 23:19:00,33.0,25.0,30.08,NNE,19,3.0,10.0,72,0.00,,,0.03,Wunderground v.1.15,2013-03-09 04:19:00,
2013-03-08 23:21:00,32.9,25.2,30.08,NE,39,3.0,10.0,73,0.00,,,0.03,Wunderground v.1.15,2013-03-09 04:21:00,
2013-03-08 23:22:00,32.9,25.2,30.08,NE,38,3.0,10.0,73,0.00,,,0.03,Wunderground v.1.15,2013-03-09 04:22:00,
2013-03-08 23:25:00,32.8,25.1,30.08,ENE,59,3.0,10.0,73,0.00,,,0.03,Wunderground v.1.15,2013-03-09 04:25:00,
2013-03-08 23:27:00,32.8,25.1,30.08,NE,46,3.0,10.0,73,0.00,,,0.03,Wunderground v.1.15,2013-03-09 04:27:00,
2013-03-08 23:28:00,32.8,25.1,30.08,NE,36,3.0,10.0,73,0.00,,,0.03,Wunderground v.1.15,2013-03-09 04:28:00,
2013-03-08 23:29:00,32.8,25.1,30.08,NE,40,3.0,10.0,73,0.00,,,0.03,Wunderground v.1.15,2013-03-09 04:29:00,
2013-03-08 23:33:00,32.7,25.0,30.08,NE,35,3.0,10.0,73,0.00,,,0.03,Wunderground v.1.15,2013-03-09 04:33:00,
2013-03-08 23:34:00,32.7,25.0,30.08,NE,35,3.0,10.0,73,0.00,,,0.03,Wunderground v.1.15,2013-03-09 04:34:00,
2013-03-08 23:35:00,32.7,25.0,30.08,North,5,3.0,10.0,73,0.00,,,0.03,Wunderground v.1.15,2013-03-09 04:35:00,
2013-03-08 23:39:00,32.7,25.0,30.08,NNE,19,3.0,10.0,73,0.00,,,0.03,Wunderground v.1.15,2013-03-09 04:39:00,
2013-03-08 23:41:00,32.8,25.1,30.08,NNE,33,3.0,10.0,73,0.00,,,0.03,Wunderground v.1.15,2013-03-09 04:41:00,
2013-03-08 23:44:00,32.9,25.2,30.08,NNE,23,4.0,10.0,73,0.00,,,0.03,Wunderground v.1.15,2013-03-09 04:44:00,
2013-03-08 23:46:00,32.9,25.2,30.08,NNE,28,4.0,10.0,73,0.00,,,0.03,Wunderground v.1.15,2013-03-09 04:46:00,
2013-03-08 23:47:00,33.0,25.3,30.09,NE,39,4.0,10.0,73,0.00,,,0.03,Wunderground v.1.15,2013-03-09 04:47:00,
2013-03-08 23:49:00,33.0,25.3,30.08,North,5,4.0,10.0,73,0.00,,,0.03,Wunderground v.1.15,2013-03-09 04:49:00,
2013-03-08 23:52:00,33.0,25.0,30.09,NNE,27,4.0,10.0,72,0.00,,,0.03,Wunderground v.1.15,2013-03-09 04:52:00,
2013-03-08 23:54:00,33.1,25.1,30.09,NE,47,3.0,10.0,72,0.00,,,0.03,Wunderground v.1.15,2013-03-09 04:54:00,
2013-03-08 23:55:00,33.1,25.1,30.09,NNE,19,3.0,10.0,72,0.00,,,0.03,Wunderground v.1.15,2013-03-09 04:55:00,
2013-03-08 23:58:00,33.1,25.1,30.09,NE,35,3.0,10.0,72,0.00,,,0.03,Wunderground v.1.15,2013-03-09 04:58:00,
2013-03-08 23:59:00,33.2,25.1,30.09,NE,55,3.0,10.0,72,0.00,,,0.03,Wunderground v.1.15,2013-03-09 04:59:00,